                ,  0.304,  0.404,  0.504,  0.604,  0.704,  0.804,  0.904,  1.004,  1.104,  1.204,  1.304,  1.404,  1.504,  1.604,  1.704,  1.804,  1.904,  2.004,  2.104,  2.204,  2.304,  2.404,  2.504,  2.604,  2.704,  2.804,  2.904,  3.004,  3.104,  3.204,  3.304,  3.404,  3.504,  3.604,  3.704,  3.804,  3.904,  4.004,  4.104,  4.204,  4.304,  4.404,  4.504,  4.604,  4.704,  4.804,  4.904,  5.004,  5.104,  5.204,  5.304,  5.404,  5.504,  5.604,  5.704,  5.804,  5.904,  6.004,  6.104,  6.204,  6.304,  6.404,  6.504,  6.604,  6.704,  6.804,  6.904,  7.004,  7.104,  7.204,  7.304,  7.404,  7.504,  7.604,  7.704,  7.804,  7.904,  8.004,  8.104,  8.204
2011/07/28 00:00,   -5.0,   -4.9,   -5.0,   -5.0,   -4.9,   -4.9,   -4.9,   -5.0,   -5.1,   -5.2,   -5.2,   -5.2,   -5.2,   -5.2,   -5.3,   -5.3,   -5.2,   -5.2,   -5.3,   -5.3,   -5.1,   -5.2,   -5.3,   -5.3,   -5.0,   -5.1,   -5.0,   -5.0,   -4.9,   -4.9,   -4.8,   -4.7,   -4.9,   -5.0,   -5.1,   -5.1,   -5.0,   -5.0,   -5.2,   -4.3,   -3.4,   -2.8,   -2.1,   -1.9,   -1.8,   -1.7,   -1.6,   -1.6,   -1.5,   -1.4,   -1.3,   -1.3,   -1.2,   -1.1,   -1.2,   -1.1,   -1.1,   -1.1,   -1.1,   -1.1,   -1.1,   -1.1,   -1.0,   -0.9,   -0.9,   -0.9,   -0.9,   -0.9,   -0.9,   -0.9,   -0.9,   -0.9,   -0.9,   -0.9,   -0.9,   -0.9,   -1.0,   -0.9,   -1.0,   -0.9
2011/07/28 00:10,   -5.2,   -5.3,   -5.3,   -5.2,   -5.2,   -5.2,   -5.2,   -5.2,   -5.3,   -5.4,   -5.5,   -5.5,   -5.6,   -5.7,   -6.0,   -6.0,   -6.1,   -6.3,   -6.1,   -6.2,   -6.4,   -6.5,   -6.6,   -6.6,   -6.6,   -6.6,   -6.6,   -6.6,   -6.8,   -6.7,   -6.6,   -6.4,   -6.7,   -7.1,   -6.8,   -6.6,   -6.0,   -6.2,   -5.5,   -3.7,  999.0,   -2.3,   -1.9,   -1.8,   -1.7,   -1.6,   -1.6,   -1.5,   -1.4,   -1.4,   -1.3,   -1.3,   -1.3,   -1.2,   -1.2,   -1.1,   -1.1,   -1.0,   -1.0,   -1.0,   -0.9,   -0.9,   -0.9,   -0.8,   -0.8,   -0.7,   -0.7,   -0.7,   -0.7,   -0.8,   -0.8,   -0.9,   -0.9,   -0.9,   -0.9,   -0.9,   -0.9,   -0.9,   -0.9,   -0.8
2011/07/28 00:20,   -6.1,   -6.4,   -6.3,   -6.2,   -6.2,   -6.2,   -6.3,   -6.3,   -6.3,   -6.2,   -6.3,   -6.3,   -6.3,   -6.8,   -6.8,   -6.8,   -7.1,   -7.2,   -7.4,   -7.6,   -7.5,   -7.5,   -7.6,   -7.7,   -7.8,   -7.9,   -7.9,   -8.0,   -8.1,   -8.2,   -8.2,   -8.3,   -8.3,   -8.3,   -8.3,   -8.3,   -7.8,   -6.5,   -4.9,   -3.6,   -2.9,   -2.4,   -2.2,   -2.0,   -1.8,   -1.7,   -1.7,   -1.6,   -1.5,   -1.4,   -1.4,   -1.4,   -1.4,   -1.4,   -1.2,   -1.3,   -1.2,   -1.2,   -1.2,   -1.1,   -1.0,   -0.9,   -0.9,   -0.8,   -0.7,   -0.7,   -0.6,   -0.6,   -0.6,   -0.6,   -0.7,   -0.6,   -0.8,   -0.8,   -0.8,   -0.9,   -1.0,   -0.9,   -1.0,   -1.0
2011/07/28 00:30,   -7.4,   -7.5,   -7.4,   -7.4,   -7.3,   -7.5,   -7.5,   -7.5,   -7.5,   -7.6,   -7.7,   -7.8,   -7.8,   -7.9,   -7.9,   -7.9,   -7.9,   -8.0,   -7.9,   -8.1,   -8.3,   -8.3,   -8.3,   -8.4,   -8.4,   -8.4,   -8.3,   -8.4,   -8.4,   -8.4,   -8.5,   -8.4,   -8.5,   -8.6,   -8.6,   -8.1,   -7.3,   -6.1,   -4.6,   -3.8,   -3.1,   -2.7,   -2.5,   -2.3,   -2.2,   -2.1,   -1.9,   -1.8,   -1.7,   -1.5,   -1.4,   -1.4,   -1.4,   -1.4,   -1.3,   -1.3,   -1.2,   -1.2,   -1.1,   -1.1,   -1.0,   -1.0,   -0.9,   -0.8,   -0.8,   -0.7,   -0.7,   -0.6,   -0.6,   -0.7,   -0.7,   -0.8,   -1.0,   -1.0,   -1.0,   -1.0,   -1.0,   -1.1,   -1.0,   -1.0
2011/07/28 00:40,   -7.5,   -7.5,   -7.6,   -7.6,   -7.7,   -7.8,   -7.7,   -7.8,   -7.8,   -7.9,   -7.9,   -7.9,   -7.9,   -7.9,   -7.8,   -7.8,   -7.9,   -8.0,   -7.9,   -7.8,   -7.9,   -7.9,   -7.9,   -7.7,   -7.9,   -7.9,   -8.0,   -7.9,   -8.0,   -8.0,   -8.0,   -8.1,   -8.3,   -8.3,   -8.3,   -8.4,   -7.2,   -5.9,   -4.2,   -3.4,   -2.9,   -2.6,   -2.3,   -2.2,   -2.0,   -1.9,   -1.8,   -1.7,   -1.6,   -1.5,   -1.5,   -1.5,   -1.5,   -1.4,   -1.4,   -1.3,   -1.3,   -1.3,   -1.2,   -1.2,   -1.1,   -1.1,   -1.1,   -1.1,   -1.1,   -1.0,   -1.0,   -0.9,   -0.9,   -0.9,   -0.9,   -1.0,   -1.0,   -1.0,   -1.0,   -0.9,   -0.9,   -1.0,   -1.0,   -0.9
2011/07/28 00:50,   -8.3,   -8.1,   -8.1,   -8.3,   -8.2,   -8.4,   -8.5,   -8.6,   -8.6,   -8.6,   -8.7,   -8.7,   -8.8,   -8.8,   -8.8,   -8.8,   -8.8,   -8.8,   -8.8,   -8.8,   -8.8,   -8.8,   -8.8,   -8.9,   -8.9,   -8.9,   -9.0,   -9.1,   -9.0,   -9.1,   -9.1,   -9.0,   -9.1,   -9.1,   -8.8,   -8.7,   -7.6,   -6.3,   -4.8,   -3.6,   -3.2,   -2.7,   -2.3,   -2.2,   -2.1,   -2.0,   -2.0,   -1.9,   -1.9,   -1.8,   -1.9,   -1.8,   -1.7,   -1.6,   -1.5,   -1.4,   -1.4,   -1.3,   -1.2,   -1.1,   -1.0,   -1.0,   -1.0,   -0.9,   -0.9,   -0.9,   -0.8,   -0.8,   -0.9,   -0.9,   -0.8,   -1.0,   -0.9,   -0.8,   -0.8,   -0.8,   -0.8,   -0.7,   -0.8,   -0.8
2011/07/28 01:00,   -7.1,   -6.8,   -6.9,   -6.8,   -6.8,   -7.1,   -6.8,   -6.9,   -6.8,   -6.7,   -6.6,   -6.5,   -6.5,   -6.4,   -6.4,   -7.4,  999.0,   -7.9,   -7.8,   -7.5,   -7.4,   -6.9,   -7.2,   -6.9,   -7.0,   -7.1,   -7.1,   -7.3,   -7.3,   -7.4,   -7.6,   -7.7,   -7.9,   -8.0,   -8.3,   -8.3,   -8.1,   -6.7,   -4.9,   -3.5,   -2.9,   -2.4,   -2.2,   -2.2,   -2.0,   -1.9,   -1.8,   -1.6,   -1.5,   -1.5,   -1.4,   -1.3,   -1.2,   -1.2,   -1.1,   -1.1,   -1.1,   -1.0,   -1.0,   -1.0,   -1.0,   -1.0,   -0.9,   -0.9,   -0.9,   -0.9,   -0.9,   -0.9,   -0.9,   -1.0,   -1.0,   -1.0,   -1.0,   -1.1,   -1.2,   -1.1,   -1.1,   -1.1,   -1.0,   -1.0
2011/07/28 01:10,   -6.2,   -6.2,   -6.2,   -6.2,   -6.4,   -6.7,   -6.6,   -6.8,   -6.7,   -6.8,   -6.9,   -6.7,   -6.7,   -6.7,   -6.6,   -6.6,   -6.7,   -6.7,   -6.6,   -6.6,   -6.7,   -6.8,   -6.9,   -6.9,   -7.2,   -7.2,   -7.3,   -7.4,   -7.6,   -7.8,   -8.0,   -8.1,   -8.1,   -8.2,   -8.4,   -8.4,   -7.8,   -6.5,   -5.0,   -3.4,   -2.8,   -2.4,   -2.1,   -2.0,   -2.0,   -1.9,   -1.8,   -1.7,   -1.7,   -1.6,   -1.5,   -1.4,   -1.4,   -1.4,   -1.3,   -1.2,   -1.1,   -1.1,   -1.0,   -0.9,   -0.9,   -0.9,   -0.9,   -0.9,   -0.9,   -0.9,   -1.0,   -0.9,   -0.9,   -0.9,   -0.9,   -0.9,   -0.9,   -0.9,   -0.9,   -0.9,   -0.9,   -1.0,   -1.0,   -1.0
2011/07/28 01:20,   -7.0,   -7.0,   -7.0,   -7.1,   -7.1,   -7.2,   -7.2,   -7.2,   -7.2,   -7.2,   -7.2,   -7.2,   -7.2,   -7.2,   -7.1,   -7.2,   -7.2,   -7.0,   -7.3,   -7.4,   -7.4,   -7.5,   -7.5,   -7.5,   -7.6,   -7.7,   -7.8,   -7.9,   -8.1,   -8.0,   -8.1,   -8.1,   -8.2,   -8.3,   -8.4,   -8.5,   -7.6,   -6.4,   -4.9,  999.0,   -2.7,   -2.5,   -2.2,   -2.0,   -1.9,   -1.8,   -1.7,   -1.7,   -1.7,   -1.7,   -1.6,   -1.5,   -1.4,   -1.4,   -1.3,   -1.2,   -1.1,   -1.0,   -1.0,   -0.9,   -0.8,   -0.7,   -0.7,   -0.7,   -0.7,   -0.7,   -0.8,   -0.8,   -0.7,   -0.7,   -0.7,   -0.8,   -0.7,   -0.3,   -0.1,  999.0,  999.0,  999.0,  999.0,  999.0
2011/07/28 01:30,   -6.8,   -6.7,   -6.5,   -6.6,   -6.6,   -6.5,   -6.5,   -7.0,   -6.7,   -6.6,   -6.5,   -6.7,   -6.6,   -6.4,   -6.4,   -6.5,   -7.0,   -7.1,   -7.2,   -7.0,   -7.0,   -7.0,   -7.1,   -7.2,   -7.3,   -7.3,   -7.4,   -7.3,   -7.4,   -7.6,   -7.7,   -7.8,   -7.8,   -8.0,   -8.1,   -8.2,   -8.1,  999.0,   -5.0,   -4.0,   -3.1,   -2.7,   -2.4,   -2.3,   -2.2,   -2.1,   -2.1,   -2.0,   -1.9,   -1.7,   -1.7,   -1.6,   -1.5,   -1.4,   -1.3,   -1.2,   -1.1,   -1.1,   -1.0,   -0.8,   -0.7,   -0.7,   -0.7,   -0.7,   -0.7,   -0.5,   -0.4,   -0.3,   -0.3,  999.0,  999.0,  999.0,  999.0,  999.0,  999.0,  999.0,  999.0,  999.0,  999.0,  999.0
2011/07/28 01:40,   -6.6,   -6.6,   -6.7,   -6.7,   -6.7,   -6.8,   -6.9,   -7.0,   -6.7,   -7.0,   -7.0,   -7.0,   -6.9,   -6.8,   -6.9,   -6.8,   -6.8,   -6.7,   -6.9,   -6.9,   -6.9,   -7.0,   -7.0,   -7.0,   -7.1,   -7.2,   -7.2,   -7.3,   -7.3,   -7.3,   -7.4,   -7.5,   -7.5,   -7.6,   -7.7,   -8.0,   -8.1,   -6.4,   -5.7,   -4.4,   -3.5,   -3.1,   -2.7,   -2.6,   -2.5,   -2.4,   -2.3,   -2.1,   -2.0,   -1.9,   -1.7,   -1.5,   -1.4,   -1.2,   -1.1,   -1.1,   -1.0,   -1.1,   -1.1,   -1.1,   -1.2,   -1.1,   -0.9,   -0.7,   -0.5,   -0.3,   -0.3,   -0.2,  999.0,  999.0,  999.0,  999.0,  999.0,  999.0,  999.0,  999.0,  999.0,  999.0,  999.0,  999.0
2011/07/28 01:50,   -6.5,   -6.5,   -6.4,   -6.3,   -6.4,   -6.2,   -6.3,   -6.3,   -6.4,   -6.5,   -6.4,   -6.4,   -6.7,   -6.3,   -6.8,   -7.1,   -7.3,   -7.5,   -7.4,   -7.3,   -7.6,   -7.5,   -7.7,   -7.5,   -7.5,   -7.5,   -7.4,   -7.2,   -7.6,   -6.7,   -6.8,   -6.2,   -6.6,   -6.8,   -6.8,   -6.1,   -6.0,   -5.8,   -5.0,   -4.5,   -3.8,   -3.4,   -3.1,   -2.6,   -2.4,   -2.2,   -2.0,   -1.8,   -1.4,   -1.1,   -1.1,   -1.0,   -0.9,   -1.4,   -1.8,   -1.9,   -1.8,   -1.6,   -1.5,   -1.5,   -1.2,   -0.8,   -0.6,  999.0,  999.0,  999.0,  999.0,  999.0,  999.0,  999.0,  999.0,  999.0,  999.0,  999.0,  999.0,  999.0,  999.0,  999.0,  999.0,  999.0
2011/07/28 02:00,   -5.5,   -5.5,   -5.4,   -5.5,   -5.7,   -5.9,   -6.0,   -5.8,   -5.9,   -5.8,   -5.9,   -5.9,   -5.8,   -5.7,   -5.6,   -5.6,   -5.3,   -5.6,   -5.4,   -5.3,   -5.0,   -4.9,   -4.6,   -4.3,   -4.7,   -4.6,   -4.6,   -4.4,   -4.8,   -4.8,   -4.8,   -4.5,   -4.7,   -4.6,   -4.4,   -4.2,   -4.2,   -4.2,   -4.2,   -3.6,   -3.0,   -2.3,   -1.8,   -1.9,   -1.8,   -1.6,   -1.6,   -1.6,   -1.5,   -1.4,   -1.3,   -1.3,   -1.3,   -1.4,   -1.4,   -1.3,   -1.3,   -1.1,   -1.0,   -0.8,   -0.7,  999.0,  999.0,  999.0,  999.0,  999.0,  999.0,  999.0,  999.0,  999.0,  999.0,  999.0,  999.0,  999.0,  999.0,  999.0,  999.0,  999.0,  999.0,  999.0
2011/07/28 02:10,   -4.9,   -4.7,   -4.6,   -4.6,   -4.4,   -4.4,   -4.4,   -4.3,   -4.3,   -4.3,   -4.4,   -4.3,   -4.2,   -4.1,   -4.0,   -4.1,   -4.2,   -4.1,   -4.1,   -4.2,   -4.1,   -4.0,   -4.0,   -4.0,   -4.0,   -3.8,   -3.8,   -3.9,   -3.9,   -3.7,   -3.7,   -3.6,   -3.5,   -3.5,   -3.4,   -3.3,   -3.3,   -3.3,   -3.2,   -3.2,   -2.9,   -2.4,   -1.7,   -1.6,   -1.5,   -1.4,   -1.3,   -1.2,   -1.2,   -1.1,   -1.1,   -1.1,   -1.1,   -1.1,   -1.1,   -1.1,   -1.1,   -1.0,   -0.9,   -0.9,  999.0,  999.0,  999.0,  999.0,  999.0,  999.0,  999.0,  999.0,  999.0,  999.0,  999.0,  999.0,  999.0,  999.0,  999.0,  999.0,  999.0,  999.0,  999.0,  999.0
2011/07/28 02:20,   -3.7,   -3.7,   -3.6,   -3.6,   -3.7,   -3.8,   -3.7,   -3.6,   -3.5,   -3.4,   -3.3,   -3.2,   -3.2,   -3.0,   -3.0,   -2.9,   -2.9,   -2.7,   -2.6,   -2.5,   -2.4,   -2.4,   -2.3,   -2.1,   -2.2,   -2.2,   -2.3,   -2.3,   -2.3,   -2.2,   -1.8,   -2.0,   -1.8,   -2.7,   -2.5,   -2.3,   -2.1,   -2.2,   -2.2,   -2.3,   -1.9,   -1.2,   -0.9,  999.0,  999.0,  999.0,  999.0,   -1.0,   -1.1,   -1.2,   -1.1,   -1.2,   -1.2,  999.0,  999.0,  999.0,  999.0,  999.0,  999.0,  999.0,  999.0,  999.0,  999.0,  999.0,  999.0,  999.0,  999.0,  999.0,  999.0,  999.0,  999.0,  999.0,  999.0,  999.0,  999.0,  999.0,  999.0,  999.0,  999.0,  999.0
2011/07/28 02:30,   -3.4,   -3.4,   -3.3,   -3.2,   -3.2,   -3.3,   -2.9,   -2.9,   -2.8,   -2.6,   -2.6,   -2.8,   -2.8,   -2.4,   -2.3,   -2.2,   -2.1,   -2.1,   -2.4,   -2.9,   -1.6,   -0.5,   -0.9,   -0.6,   -0.6,   -0.6,   -0.4,   -0.4,   -0.2,   -0.1,   -0.1,   -0.1,   -0.0,    0.0,    0.0,  999.0,  999.0,  999.0,  999.0,  999.0,  999.0,  999.0,  999.0,  999.0,  999.0,  999.0,   -0.3,  999.0,  999.0,  999.0,  999.0,  999.0,  999.0,  999.0,  999.0,  999.0,  999.0,  999.0,  999.0,  999.0,  999.0,  999.0,  999.0,  999.0,  999.0,  999.0,  999.0,  999.0,  999.0,  999.0,  999.0,  999.0,  999.0,  999.0,  999.0,  999.0,  999.0,  999.0,  999.0,  999.0
2011/07/28 02:40,   -0.1,  999.0,   -0.5,   -0.3,   -0.1,   -0.0,    0.1,    0.4,    0.3,    0.1,   -0.0,  999.0,    0.0,   -0.3,   -0.5,   -1.4,   -1.0,   -1.2,   -0.6,   -0.4,   -0.7,   -0.4,   -0.8,   -1.0,   -0.9,   -0.5,   -0.6,   -0.6,   -0.8,   -0.7,   -0.7,   -0.4,   -0.3,   -0.2,   -0.2,   -0.2,   -0.0,  999.0,  999.0,   -0.1,  999.0,  999.0,  999.0,  999.0,  999.0,  999.0,  999.0,  999.0,  999.0,  999.0,  999.0,  999.0,  999.0,  999.0,  999.0,  999.0,  999.0,  999.0,  999.0,  999.0,  999.0,   -0.1,  999.0,  999.0,  999.0,   -0.1,  999.0,   -0.1,  999.0,   -0.1,   -0.1,  999.0,   -0.1,  999.0,  999.0,  999.0,  999.0,  999.0,   -0.1,  999.0
2011/07/28 02:50,    0.0,    0.0,    0.0,   -0.1,   -0.0,    0.0,    0.1,   -0.1,   -0.1,   -0.1,   -0.1,   -0.1,   -0.1,   -0.0,   -0.0,   -0.2,    0.0,   -0.1,   -0.1,   -0.3,   -0.5,   -0.4,   -0.4,   -0.4,   -0.5,   -0.6,   -0.6,   -0.5,   -0.4,   -0.3,   -0.2,   -0.2,   -0.1,   -0.0,   -0.0,   -0.1,  999.0,  999.0,   -0.0,   -0.1,  999.0,  999.0,   -0.9,   -0.7,   -0.8,  999.0,  999.0,  999.0,  999.0,  999.0,  999.0,  999.0,  999.0,  999.0,  999.0,  999.0,  999.0,  999.0,  999.0,  999.0,  999.0,  999.0,  999.0,   -0.1,   -0.1,   -0.1,  999.0,   -0.1,   -0.1,   -0.1,   -0.1,   -0.1,  999.0,   -0.1,   -0.1,  999.0,   -0.1,   -0.1,  999.0,   -0.1
2011/07/28 03:00,   -0.8,   -0.7,   -0.7,   -1.0,   -0.4,   -1.1,   -0.6,   -0.6,   -0.5,   -0.6,   -0.8,   -1.1,   -0.9,   -0.6,   -0.6,   -0.3,   -0.7,   -0.7,   -0.8,   -0.5,   -0.5,   -0.3,   -0.1,   -0.2,   -0.3,   -0.1,   -0.2,   -0.2,   -0.2,   -0.2,   -0.1,    0.0,   -0.1,   -0.1,   -0.1,    0.3,   -0.0,    0.1,    0.1,   -0.2,   -0.2,   -0.3,   -0.6,   -0.7,  999.0,  999.0,  999.0,  999.0,  999.0,  999.0,  999.0,  999.0,  999.0,   -0.1,  999.0,  999.0,  999.0,  999.0,  999.0,  999.0,  999.0,  999.0,  999.0,   -0.5,   -0.5,   -1.0,  999.0,  999.0,  999.0,  999.0,  999.0,  999.0,  999.0,   -0.1,  999.0,  999.0,  999.0,  999.0,  999.0,  999.0
2011/07/28 03:10,   -3.5,   -4.1,   -5.0,   -5.0,   -4.6,   -4.3,   -4.3,   -4.2,   -4.0,   -4.0,   -3.9,   -3.7,   -3.4,   -3.2,   -2.9,   -2.7,   -2.6,   -2.4,   -2.3,   -2.2,   -1.9,   -1.6,   -1.6,   -1.2,   -1.1,   -1.0,   -1.1,   -0.7,   -0.7,   -0.3,   -0.0,    0.0,   -0.1,   -0.2,   -0.2,   -0.0,   -0.0,    0.1,   -0.2,   -0.1,   -0.3,   -0.2,   -0.3,   -0.3,   -0.1,  999.0,  999.0,  999.0,  999.0,  999.0,  999.0,  999.0,  999.0,  999.0,  999.0,  999.0,  999.0,  999.0,  999.0,  999.0,  999.0,   -0.3,  999.0,   -0.2,   -0.6,   -0.6,   -0.6,   -0.6,  999.0,  999.0,  999.0,  999.0,  999.0,  999.0,  999.0,  999.0,  999.0,  999.0,  999.0,  999.0
2011/07/28 03:20,   -1.0,   -1.3,   -1.3,   -0.9,   -0.9,   -0.9,   -0.8,   -0.7,   -0.7,   -0.5,   -0.5,   -0.4,   -0.4,   -0.2,    0.2,    0.1,   -0.2,   -0.5,   -0.5,   -1.1,   -1.3,   -1.1,   -1.1,   -1.0,   -1.0,   -0.9,   -0.8,   -0.9,   -1.2,   -0.9,   -0.7,   -0.9,   -0.6,   -0.4,   -0.5,   -0.7,   -0.8,   -1.5,   -1.6,   -1.3,   -1.2,   -1.0,   -0.9,   -0.6,   -0.6,  999.0,   -1.2,   -1.2,   -1.2,   -1.1,   -1.1,   -1.1,   -1.1,   -1.0,   -1.0,   -1.0,   -0.9,   -0.9,   -0.8,   -0.8,   -0.7,   -0.8,   -0.8,   -0.8,   -0.7,   -0.8,   -0.9,   -0.9,   -1.0,  999.0,   -0.9,   -0.9,  999.0,  999.0,   -1.2,  999.0,  999.0,   -1.0,  999.0,   -1.2
2011/07/28 03:30,   -0.0,   -0.0,    0.0,   -0.1,    0.1,   -0.1,   -0.1,   -0.0,   -0.0,   -1.6,   -2.6,   -2.0,   -2.3,   -1.9,   -2.1,   -2.3,   -2.7,   -3.0,   -2.9,   -2.8,   -3.2,   -3.0,   -2.9,   -2.6,   -2.6,   -2.6,   -2.6,   -3.3,   -2.9,  999.0,   -4.7,   -4.9,   -4.5,   -4.4,   -5.2,   -4.6,   -4.6,   -5.0,   -4.4,   -3.9,   -3.0,   -2.2,   -1.8,   -1.6,   -1.6,   -1.5,   -1.4,   -1.4,   -1.3,   -1.3,   -1.2,   -1.2,   -1.2,   -1.1,   -1.1,   -1.1,   -1.1,   -1.1,   -1.0,   -1.0,   -1.0,   -1.0,   -0.9,   -1.0,   -0.9,   -0.9,   -0.9,   -0.9,   -0.9,   -0.9,   -1.0,   -1.0,   -1.0,   -1.0,   -1.0,   -1.0,   -1.0,   -1.0,   -1.1,   -1.0
2011/07/28 03:40,   -6.4,   -6.8,   -5.8,   -5.8,   -6.0,   -6.2,   -6.0,   -5.9,   -5.8,   -5.7,   -5.9,   -6.0,   -6.3,   -6.3,   -6.3,   -6.2,   -6.3,   -6.4,   -6.4,   -6.4,   -6.6,   -6.6,   -6.7,   -6.7,   -6.7,   -6.8,   -6.9,   -7.0,   -7.0,   -7.0,   -7.0,   -7.0,   -7.0,   -7.1,   -7.0,   -7.4,   -7.4,   -7.0,   -5.8,   -4.3,   -3.2,   -2.6,   -2.2,   -2.0,   -1.9,   -1.8,   -1.7,   -1.6,   -1.6,   -1.5,   -1.5,   -1.5,   -1.5,   -1.4,   -1.4,   -1.4,   -1.3,   -1.4,   -1.4,   -1.3,   -1.3,   -1.2,   -1.1,   -1.0,   -1.0,   -0.9,   -0.9,   -0.9,   -0.9,   -0.9,   -1.0,   -1.0,   -1.0,   -0.9,   -0.9,   -0.9,   -0.9,   -0.8,   -0.8,   -0.7
2011/07/28 03:50,   -6.1,   -6.0,   -6.0,   -5.9,   -5.9,   -5.9,   -5.9,   -5.9,   -5.9,   -5.9,   -5.9,   -5.9,   -5.9,   -5.9,   -6.0,   -6.0,   -6.1,   -6.2,   -6.2,   -6.3,   -6.3,   -6.4,   -6.5,   -6.5,   -6.6,   -6.6,   -6.7,   -6.7,   -6.8,   -6.8,   -6.7,   -6.8,   -6.9,   -7.0,   -7.0,   -7.0,   -6.8,   -6.6,   -5.2,   -3.8,   -3.1,   -2.5,   -2.3,   -2.1,   -2.0,   -1.9,   -1.8,   -1.8,   -1.7,   -1.7,   -1.6,   -1.6,   -1.6,   -1.6,   -1.6,   -1.5,   -1.5,   -1.5,   -1.4,   -1.4,   -1.4,   -1.4,   -1.4,   -1.4,   -1.4,   -1.4,   -1.4,   -1.3,   -1.2,   -1.2,   -1.2,   -1.1,   -1.1,   -1.0,   -1.0,   -1.0,   -0.9,   -0.8,   -0.8,   -0.7
2011/07/28 04:00,   -6.5,   -6.5,   -6.6,   -6.7,   -6.7,   -6.9,   -6.8,   -6.8,   -6.6,   -6.9,   -7.0,   -7.0,   -7.1,   -7.1,   -7.2,   -7.2,   -7.3,   -7.4,   -7.7,   -7.7,   -7.5,   -7.5,   -7.6,   -7.6,   -7.7,   -7.9,   -7.9,   -8.0,   -8.2,   -8.2,   -8.3,   -8.4,   -8.4,   -8.5,   -8.6,  999.0,  999.0,   -6.9,   -5.8,   -4.7,   -4.0,   -3.5,   -3.0,   -2.6,   -2.4,   -2.2,   -2.0,   -1.9,   -1.9,   -1.8,   -1.8,   -1.7,   -1.7,   -1.6,   -1.6,   -1.6,   -1.7,   -1.8,   -1.8,   -1.8,   -1.8,   -1.9,   -1.9,   -1.7,   -1.6,   -1.6,   -1.6,   -1.6,   -1.5,   -1.3,   -1.2,   -1.0,   -0.9,   -0.7,   -0.7,   -0.6,   -0.5,   -0.5,   -0.5,   -0.5
2011/07/28 04:10,   -7.1,   -7.1,   -7.1,   -7.2,   -7.1,   -7.2,   -7.1,   -7.1,   -7.1,   -7.1,   -7.0,   -7.1,   -7.0,   -7.2,   -7.2,   -7.2,   -7.2,   -7.2,   -7.2,   -7.2,   -7.3,   -7.4,   -7.4,   -7.5,   -7.7,   -7.8,   -7.7,   -7.7,   -7.8,   -7.8,   -8.0,   -8.0,   -8.1,   -8.2,   -8.1,  999.0,   -7.5,   -6.6,   -5.5,   -4.5,   -3.6,   -3.0,   -2.6,   -2.3,   -2.2,   -2.1,   -2.0,   -2.0,   -2.0,   -1.9,   -1.9,   -1.7,   -1.9,   -1.6,   -1.9,   -2.0,   -1.9,   -1.9,   -1.9,   -1.8,   -1.8,   -1.7,   -1.6,   -1.3,   -1.3,   -1.3,   -1.3,   -1.3,   -1.3,   -1.2,   -1.1,   -0.9,   -0.9,   -0.8,   -0.8,   -0.8,   -0.8,   -0.8,   -0.7,   -0.6
2011/07/28 04:20,   -6.2,   -6.2,   -6.2,   -6.3,   -6.2,   -6.2,   -6.3,   -6.3,   -6.3,   -6.4,   -6.4,   -6.4,   -6.4,   -6.4,   -6.4,   -6.4,   -6.7,   -6.7,   -6.7,   -6.7,   -6.7,   -6.9,   -6.8,   -6.9,   -7.0,   -7.1,   -7.2,   -7.2,   -7.2,   -7.1,   -7.3,   -7.2,   -6.9,   -6.8,   -6.8,   -6.9,   -7.1,   -6.9,   -6.1,   -5.0,   -4.0,   -3.3,   -2.3,   -2.0,   -2.0,   -1.9,   -1.8,   -1.8,   -1.7,   -1.6,   -1.5,   -1.5,   -1.4,   -1.3,   -1.3,   -1.3,   -1.2,   -1.2,   -1.2,   -1.2,   -1.2,   -1.2,   -1.2,   -1.1,   -1.1,   -1.0,   -0.9,   -0.9,   -0.8,   -0.9,   -0.9,   -0.8,   -0.8,   -0.9,   -0.8,   -0.7,   -0.7,   -0.8,   -0.6,   -0.7
2011/07/28 04:30,   -5.7,   -5.8,   -5.9,   -6.2,   -6.2,   -6.3,   -6.2,   -6.6,   -6.5,   -6.6,   -6.7,   -6.6,   -6.6,   -6.6,   -6.6,   -6.7,   -6.6,   -6.8,   -6.8,   -6.8,   -6.9,   -7.0,   -7.1,   -7.1,   -7.2,   -7.2,   -7.3,   -7.3,   -7.3,   -7.3,   -7.3,   -7.3,   -7.3,   -7.4,   -7.6,   -7.4,   -7.5,   -6.9,   -5.7,   -3.9,   -2.8,   -2.2,   -2.1,   -1.9,   -1.9,   -1.8,   -1.7,   -1.7,   -1.7,   -1.7,   -1.6,   -1.6,   -1.5,   -1.5,   -1.5,   -1.4,   -1.4,   -1.4,   -1.3,   -1.4,   -1.3,   -1.1,   -1.1,   -1.0,   -0.9,   -0.8,   -0.7,   -0.7,   -0.6,   -0.6,   -0.5,   -0.5,   -0.6,   -0.7,   -0.8,   -0.9,   -0.7,   -0.8,   -0.9,   -1.0
2011/07/28 04:40,   -5.0,   -5.1,   -4.8,   -4.7,   -4.6,   -4.5,   -4.6,   -5.3,   -5.1,   -5.3,   -5.4,   -5.3,   -5.4,   -5.4,   -5.6,   -5.7,   -5.7,   -5.7,   -5.9,   -6.0,   -6.1,   -6.1,   -6.2,   -6.3,   -6.2,   -6.2,   -6.1,   -6.0,   -6.1,   -6.0,   -5.9,   -5.8,   -5.7,   -5.6,   -5.6,   -5.7,   -5.3,   -5.4,   -4.6,  999.0,  999.0,   -1.6,   -1.3,   -1.1,   -1.0,   -1.0,   -1.1,   -1.1,   -1.1,   -1.0,   -1.0,   -0.8,   -0.8,   -0.9,   -0.6,   -0.6,   -0.6,   -0.8,   -0.6,   -0.6,   -0.5,   -0.3,   -0.2,   -0.3,   -0.2,   -0.4,   -0.4,   -0.4,   -0.5,   -0.5,  999.0,   -0.3,  999.0,  999.0,  999.0,  999.0,  999.0,  999.0,  999.0,  999.0
2011/07/28 04:50,   -3.1,   -4.0,   -3.9,   -3.9,   -3.7,   -4.9,   -4.5,   -5.1,   -5.0,   -4.7,   -4.4,   -4.8,   -4.7,   -4.6,   -4.8,   -4.4,   -4.3,   -4.4,   -4.4,   -4.3,   -4.6,   -4.5,   -4.4,   -4.2,   -4.5,   -5.0,   -4.8,   -4.7,   -5.0,   -4.9,   -4.2,   -4.0,   -4.4,   -4.3,   -4.5,   -4.3,   -3.0,   -2.7,   -2.2,   -2.0,   -2.1,   -1.6,   -1.2,   -1.1,   -1.2,   -1.1,   -1.1,   -0.9,   -0.8,   -0.7,   -0.6,   -0.4,   -0.3,   -0.1,   -0.0,   -0.0,   -0.0,   -0.0,   -0.0,    0.0,    0.1,    0.0,   -0.0,   -0.2,    0.0,  999.0,   -0.0,  999.0,  999.0,  999.0,  999.0,    0.0,  999.0,    0.0,  999.0,  999.0,  999.0,  999.0,  999.0,  999.0
2011/07/28 05:00,   -5.6,   -5.7,   -5.5,   -5.4,   -5.2,   -5.3,   -5.2,   -5.1,   -4.9,   -5.1,   -4.9,   -5.2,   -5.1,   -5.0,   -5.2,   -5.1,   -5.0,   -5.5,   -5.3,   -5.1,   -5.1,   -4.9,   -4.9,   -4.8,   -4.6,   -4.9,   -5.1,   -5.3,   -5.0,   -4.9,   -4.7,   -4.4,   -4.3,   -4.0,   -3.9,   -3.6,   -3.4,   -3.6,   -3.3,   -2.3,   -1.9,   -1.8,   -1.6,   -1.4,   -1.2,   -1.1,   -0.9,   -0.7,   -0.5,   -0.6,   -0.5,   -0.2,   -0.0,   -0.0,    0.3,    0.1,    0.0,    0.1,    0.1,    0.1,    0.1,   -0.0,   -0.1,    0.0,    0.0,   -0.0,  999.0,  999.0,  999.0,  999.0,  999.0,   -0.0,  999.0,  999.0,  999.0,  999.0,  999.0,  999.0,  999.0,  999.0
2011/07/28 05:10,   -3.8,   -3.6,   -3.5,   -3.4,   -3.3,   -3.8,   -3.5,   -3.3,   -3.1,   -3.3,   -2.9,   -2.9,   -3.1,   -3.0,   -2.8,   -2.8,   -3.0,   -3.4,   -2.9,   -3.2,  999.0,   -2.8,   -2.5,   -2.9,   -3.2,   -3.6,   -3.5,   -3.4,   -3.3,   -3.4,   -3.2,   -3.4,   -3.4,   -3.1,   -3.1,   -3.2,   -2.9,   -3.7,   -2.7,   -1.9,   -2.3,   -1.7,   -1.3,   -1.0,   -0.7,   -0.8,   -0.7,   -0.4,   -0.4,   -0.2,  999.0,    0.1,    0.1,    0.1,    0.1,    0.2,    0.0,  999.0,    0.1,    0.1,   -0.0,   -0.1,    0.0,    0.1,    0.0,   -0.0,  999.0,  999.0,  999.0,  999.0,  999.0,  999.0,  999.0,  999.0,  999.0,  999.0,  999.0,  999.0,  999.0,  999.0
2011/07/28 05:20,   -0.7,   -0.6,   -0.6,   -0.7,   -0.5,   -0.5,   -0.6,   -1.0,   -1.8,   -1.7,   -1.8,   -1.1,   -1.1,   -2.5,   -2.4,   -2.5,   -1.7,   -0.7,   -0.7,   -0.7,   -0.7,   -0.7,   -0.7,   -0.6,   -0.6,   -1.3,   -2.3,   -1.8,   -1.3,   -1.4,   -2.4,   -2.5,   -3.6,  999.0,   -3.0,   -3.9,   -3.7,   -3.5,   -3.2,   -2.3,   -3.1,   -1.8,   -1.2,   -1.0,   -1.0,   -1.0,   -0.8,   -0.7,   -0.2,   -0.3,   -0.1,    0.2,    0.1,    0.0,   -0.0,    0.2,    0.0,    0.0,    0.2,    0.1,   -0.1,    0.0,   -0.0,   -0.0,    0.0,   -0.0,    0.0,  999.0,  999.0,  999.0,  999.0,  999.0,  999.0,   -0.0,  999.0,  999.0,  999.0,  999.0,  999.0,  999.0
2011/07/28 05:30,   -5.5,   -5.5,   -5.4,   -5.2,   -5.2,   -5.5,   -5.4,   -4.8,   -4.6,   -4.4,   -4.5,   -4.3,   -4.0,   -3.7,   -3.5,   -2.9,   -2.8,   -2.7,   -2.7,   -2.8,   -2.6,   -3.1,   -3.1,   -2.9,   -2.7,   -2.5,   -2.3,   -2.1,   -2.0,   -2.7,   -2.4,   -2.1,   -2.0,   -2.1,   -1.9,   -1.9,   -1.9,   -2.1,   -2.1,   -2.2,   -2.1,   -1.8,   -1.4,   -0.9,   -0.7,   -0.6,   -0.5,   -0.4,   -0.2,   -0.1,   -0.1,    0.0,   -0.0,   -0.0,    0.0,    0.0,    0.0,    0.1,    0.0,    0.1,   -0.0,   -0.1,   -0.0,   -0.0,    0.0,    0.0,   -0.0,  999.0,    0.0,  999.0,    0.0,    0.0,  999.0,  999.0,  999.0,  999.0,  999.0,  999.0,  999.0,  999.0
2011/07/28 05:40,  999.0,   -2.6,   -2.8,   -2.9,   -2.8,   -2.6,   -2.4,   -2.3,   -2.3,   -2.3,   -2.3,   -2.0,   -2.3,   -2.6,   -2.2,   -2.3,   -2.1,   -1.5,   -1.4,   -1.3,   -2.2,  999.0,   -2.3,   -2.3,   -2.2,   -2.6,   -2.5,   -2.3,   -2.3,   -2.3,   -2.1,   -2.3,   -1.8,   -1.4,   -1.7,   -1.3,   -1.1,   -0.2,   -0.2,   -0.2,   -0.0,   -0.0,  999.0,   -0.0,   -0.1,   -0.2,   -0.2,   -0.1,   -0.0,   -0.1,    0.0,    0.0,    0.1,    0.1,    0.1,    0.0,    0.1,   -0.0,    0.0,   -0.0,   -0.0,   -0.0,    0.0,    0.0,    0.0,    0.1,    0.0,   -0.0,   -0.0,    0.0,    0.0,   -0.0,   -0.0,   -0.1,  999.0,  999.0,  999.0,  999.0,  999.0,  999.0
2011/07/28 05:50,   -0.0,   -0.0,   -0.0,    0.0,    0.0,    0.0,   -0.1,   -0.0,   -0.0,    0.0,    0.0,    0.0,    0.0,    0.0,    0.1,    0.1,    0.0,   -0.0,    0.0,    0.0,    0.1,    0.0,    0.1,    0.1,    0.0,   -0.1,    0.0,    0.1,    0.0,   -0.0,   -0.0,   -0.1,   -0.0,   -0.0,    0.1,   -0.0,   -0.4,   -0.2,   -0.2,   -0.1,    0.1,   -0.0,   -0.0,   -0.0,   -0.0,   -0.0,   -0.0,   -0.0,   -0.1,   -0.0,   -0.0,   -0.0,    0.0,    0.0,    0.0,    0.0,    0.0,   -0.0,    0.0,    0.0,    0.1,    0.1,   -0.0,    0.0,    0.0,    0.0,   -0.0,    0.0,   -0.0,    0.1,    0.0,    0.0,    0.0,    0.1,  999.0,  999.0,  999.0,  999.0,  999.0,  999.0
2011/07/28 06:00,   -0.0,   -0.0,   -0.0,    0.2,    0.1,    0.0,    0.0,    0.0,    0.0,    0.0,    0.2,    0.1,    0.1,    0.1,    0.1,    0.0,    0.0,   -0.1,   -0.1,   -0.1,   -0.0,   -0.0,   -0.1,   -0.1,   -0.1,   -0.0,   -0.0,   -0.0,   -0.0,   -0.1,   -0.1,    0.0,   -0.0,   -0.0,    0.0,   -0.1,   -0.1,   -0.0,   -0.2,   -0.0,   -0.0,  999.0,    0.0,   -0.0,   -0.0,   -0.0,   -0.0,   -0.1,   -0.1,   -0.1,   -0.2,   -0.4,   -0.3,   -0.1,    0.0,   -0.0,   -0.0,   -0.0,   -0.0,    0.0,    0.0,    0.1,   -0.0,    0.0,    0.0,    0.0,    0.0,   -0.0,   -0.0,    0.0,   -0.0,   -0.0,    0.0,    0.0,  999.0,  999.0,  999.0,  999.0,  999.0,  999.0
2011/07/28 06:10,    0.0,    0.0,    0.0,    0.0,    0.0,   -0.0,    0.0,    0.0,    0.0,    0.0,    0.0,   -0.0,    0.0,    0.0,    0.1,    0.0,    0.0,   -0.0,   -0.0,   -0.1,   -0.0,    0.0,    0.0,    0.0,   -0.0,    0.0,    0.0,    0.1,    0.1,    0.0,   -0.0,    0.0,   -0.0,   -0.1,   -0.2,   -0.2,   -0.2,   -0.3,   -0.2,   -0.1,    0.0,   -0.0,   -0.1,    0.0,   -0.0,   -0.1,   -0.0,    0.1,    0.0,    0.0,   -0.1,    0.1,    0.1,   -0.0,   -0.0,    0.0,    0.0,   -0.0,   -0.0,   -0.2,   -0.0,   -0.1,   -0.0,   -0.0,   -0.0,    0.0,    0.0,   -0.0,    0.0,   -0.0,    0.0,    0.0,   -0.0,    0.0,  999.0,  999.0,  999.0,  999.0,  999.0,  999.0
2011/07/28 06:20,   -0.0,    0.0,   -0.0,   -0.0,    0.0,    0.0,    0.0,   -0.0,   -0.0,   -0.0,   -0.0,    0.0,    0.0,    0.1,    0.0,    0.0,   -0.0,   -0.0,   -0.0,   -0.1,   -0.1,   -0.2,   -0.1,    0.0,    0.0,    0.0,    0.1,    0.1,    0.0,    0.0,    0.0,    0.1,    0.0,   -0.1,   -0.1,   -0.1,   -0.1,   -0.3,   -0.0,   -0.0,   -0.1,    0.0,    0.0,    0.0,   -0.0,   -0.1,   -0.1,   -0.1,   -0.0,    0.0,   -0.0,   -0.1,    0.0,    0.0,   -0.1,   -0.0,   -0.0,   -0.0,   -0.1,   -0.1,   -0.1,   -0.0,   -0.0,    0.0,   -0.0,    0.0,    0.1,    0.0,   -0.0,   -0.0,    0.0,   -0.0,   -0.0,    0.0,    0.0,   -0.0,  999.0,  999.0,  999.0,  999.0
2011/07/28 06:30,    0.0,   -0.0,    0.0,   -0.0,   -0.0,   -0.0,   -0.0,   -0.0,   -0.0,   -0.0,   -0.0,    0.0,    0.1,    0.0,    0.1,    0.0,    0.0,    0.0,   -0.0,    0.0,    0.0,    0.0,    0.0,   -0.0,   -0.0,   -0.0,   -0.1,    0.0,    0.1,    0.0,    0.2,    0.1,    0.1,    0.2,    0.2,    0.1,    0.1,    0.1,    0.0,    0.1,    0.2,    0.1,    0.0,    0.0,    0.0,    0.0,    0.0,    0.0,   -0.1,   -0.1,   -0.0,   -0.1,    0.0,    0.0,    0.0,   -0.0,    0.0,    0.0,    0.0,    0.0,   -0.1,   -0.1,   -0.1,   -0.1,   -0.0,   -0.2,    0.0,   -0.0,    0.0,    0.1,  999.0,  999.0,   -0.1,    0.0,   -0.0,  999.0,  999.0,  999.0,  999.0,  999.0
2011/07/28 06:40,    0.0,   -0.1,   -0.1,   -0.1,   -0.1,   -0.1,   -0.0,   -0.0,   -0.0,   -0.0,   -0.0,    0.0,    0.0,    0.0,    0.0,    0.1,   -0.0,   -0.0,    0.0,    0.0,    0.0,    0.1,   -0.0,   -0.0,    0.0,    0.0,    0.0,    0.1,   -0.1,   -0.1,    0.1,    0.0,   -0.0,   -0.0,   -0.0,   -0.1,   -0.1,   -0.1,   -0.0,    0.1,    0.0,    0.0,    0.1,    0.1,    0.0,    0.0,    0.0,    0.0,    0.0,   -0.0,    0.0,    0.1,    0.1,    0.0,    0.0,    0.1,    0.0,    0.0,   -0.0,   -0.0,   -0.0,   -0.0,   -0.0,   -0.0,   -0.0,   -0.0,    0.1,    0.1,   -0.0,    0.0,   -0.0,   -0.1,    0.0,    0.0,    0.0,  999.0,  999.0,  999.0,  999.0,  999.0
2011/07/28 06:50,    0.0,   -0.0,   -0.0,   -0.0,   -0.0,   -0.0,    0.0,    0.0,   -0.0,    0.0,    0.0,    0.0,    0.0,   -0.0,   -0.0,   -0.0,    0.0,    0.0,    0.0,    0.0,    0.0,    0.0,    0.0,    0.0,    0.0,    0.0,    0.0,   -0.0,    0.0,    0.1,    0.1,    0.0,    0.1,    0.1,    0.1,    0.1,    0.2,    0.1,    0.1,   -0.1,    0.0,    0.1,   -0.0,    0.1,    0.0,    0.0,   -0.0,    0.0,    0.1,    0.0,    0.0,    0.0,    0.0,    0.0,    0.0,   -0.0,    0.0,   -0.1,   -0.1,   -0.1,   -0.0,    0.0,    0.1,    0.0,   -0.0,    0.0,    0.0,   -0.0,   -0.4,   -0.9,   -0.7,   -1.0,   -0.4,   -1.3,   -0.7,  999.0,   -0.8,  999.0,  999.0,  999.0
2011/07/28 07:00,  999.0,   -0.0,   -0.0,   -0.0,   -0.0,   -0.0,   -0.0,    0.0,   -0.0,   -0.0,   -0.1,   -0.1,   -0.0,   -0.1,    0.0,    0.0,    0.0,    0.0,    0.0,    0.0,    0.0,    0.0,   -0.0,   -0.0,   -0.1,   -0.2,   -0.2,   -0.3,   -0.7,   -0.7,   -0.2,   -0.2,   -0.1,   -0.4,   -0.4,   -0.2,   -0.2,   -0.1,   -0.1,   -0.0,   -0.0,   -0.0,    0.0,    0.0,   -0.0,   -0.0,    0.0,   -0.0,   -0.0,   -0.0,    0.0,    0.0,   -0.0,   -0.2,   -0.2,   -0.5,   -0.7,   -0.7,   -0.7,   -1.4,   -1.4,   -1.1,   -1.4,   -1.5,   -1.4,   -1.5,   -1.6,   -1.6,   -1.5,   -1.5,   -1.4,   -1.3,   -1.3,   -1.2,   -1.1,   -1.1,   -1.1,   -1.0,   -1.0,   -0.9
2011/07/28 07:10,  999.0,    0.0,    0.0,   -0.0,   -0.0,    0.1,    0.1,    0.1,    0.1,    0.0,    0.0,    0.0,    0.1,    0.2,    0.1,    0.1,    0.1,   -0.1,   -0.3,   -0.5,   -0.7,   -1.1,   -2.2,   -1.7,   -1.6,   -2.4,   -3.0,   -3.0,   -1.3,   -2.7,   -2.4,   -2.1,   -2.1,   -2.0,   -2.0,   -2.0,   -2.0,   -2.0,   -2.6,   -2.3,  999.0,  999.0,  999.0,   -1.0,   -1.1,   -1.1,   -1.0,   -0.7,  999.0,   -1.3,   -1.1,   -1.0,   -1.1,   -0.9,   -1.2,   -1.2,   -1.3,   -1.3,   -1.4,   -1.4,   -1.5,   -1.6,   -1.7,   -1.7,   -1.8,   -1.7,   -1.7,   -1.6,   -1.5,   -1.4,   -1.3,   -1.1,   -1.0,   -0.9,   -0.8,   -0.8,   -0.7,   -0.7,   -0.6,   -0.7
2011/07/28 07:20,   -6.2,   -6.1,   -6.8,   -6.8,   -7.0,   -7.1,   -7.2,   -7.1,   -7.0,   -7.1,   -7.0,   -7.1,   -6.8,   -6.6,   -6.5,   -6.5,   -6.6,   -6.6,   -6.6,   -6.7,   -6.7,   -6.8,   -6.9,   -7.0,   -7.0,   -7.1,   -7.0,   -7.1,   -7.1,   -7.2,   -7.1,   -7.1,   -7.0,   -7.0,   -7.1,   -7.1,   -7.2,   -7.3,   -7.3,   -6.4,  999.0,  999.0,  999.0,   -1.6,   -1.6,   -1.6,   -1.7,   -1.8,   -1.8,   -1.8,   -1.6,   -1.7,   -1.7,   -1.6,   -1.6,   -1.5,   -1.4,   -1.4,   -1.2,   -1.1,   -1.0,   -1.0,   -1.0,   -1.1,   -1.1,   -1.1,   -1.1,   -1.0,   -1.0,   -1.1,   -1.1,   -1.0,   -0.9,   -0.9,   -0.8,   -0.8,   -0.8,   -0.8,   -0.8,   -0.8
2011/07/28 07:30,   -6.5,   -6.3,   -5.8,   -6.5,   -6.5,   -6.8,   -6.6,   -6.8,   -6.8,   -7.0,   -6.9,   -6.8,   -6.7,   -6.8,   -6.9,   -7.1,   -7.2,   -7.2,   -7.3,   -7.3,   -7.0,   -7.5,   -7.4,   -7.4,   -7.6,   -7.6,   -7.8,   -7.9,   -7.7,   -7.7,   -7.9,   -7.9,   -8.0,   -8.1,   -8.1,   -8.2,   -8.5,   -7.7,   -6.6,  999.0,   -3.3,   -2.4,   -1.7,   -1.6,   -1.6,   -1.5,   -1.5,   -1.5,   -1.5,   -1.4,   -1.3,   -1.3,   -1.3,   -1.3,   -1.3,   -1.3,   -1.3,   -1.3,   -1.2,   -1.1,   -1.0,   -1.0,   -1.0,   -1.0,   -1.0,   -1.0,   -1.0,   -1.0,   -1.0,   -1.0,   -0.9,   -0.9,   -0.9,   -0.9,   -0.9,   -0.9,   -0.9,   -0.9,   -0.9,   -0.9
2011/07/28 07:40,   -6.0,   -6.1,   -6.3,   -6.4,   -6.6,   -6.4,   -6.4,   -6.3,   -6.3,   -6.3,   -6.5,   -6.5,   -6.5,   -6.6,   -6.6,   -6.6,   -6.6,   -6.6,   -6.6,   -6.6,   -6.6,   -6.7,   -6.7,   -6.6,   -6.7,   -6.7,   -6.7,   -6.7,   -6.8,   -6.8,   -6.8,   -6.9,   -6.9,   -6.9,   -7.1,   -7.0,   -7.1,   -6.2,   -5.0,  999.0,  999.0,   -2.0,   -1.9,   -1.8,   -1.7,   -1.7,   -1.6,   -1.6,   -1.6,   -1.5,   -1.5,   -1.5,   -1.4,   -1.3,   -1.2,   -1.2,   -1.2,   -1.2,   -1.2,   -1.2,   -1.2,   -1.2,   -1.1,   -1.1,   -1.1,   -1.1,   -1.1,   -1.1,   -1.1,   -1.1,   -1.1,   -1.1,   -1.1,   -1.1,   -1.1,   -1.0,   -1.0,   -1.0,   -0.9,   -0.9
2011/07/28 07:50,   -6.4,   -6.5,   -6.6,   -6.6,   -6.6,   -6.6,   -6.7,   -6.9,   -6.8,   -6.7,   -6.5,   -6.4,   -6.7,   -6.8,   -6.9,   -7.1,   -7.2,   -7.4,   -7.5,   -7.6,   -7.6,   -7.7,   -7.8,   -7.8,   -7.8,   -7.9,   -7.9,   -7.9,   -7.9,   -8.1,   -8.0,   -8.1,   -8.1,   -8.1,   -8.1,   -7.6,   -6.5,   -4.9,  999.0,   -2.9,   -2.6,   -2.3,   -2.1,   -2.0,   -2.0,   -1.9,   -1.8,   -1.8,   -1.8,   -1.7,   -1.7,   -1.7,   -1.7,   -1.7,   -1.7,   -1.6,   -1.5,   -1.6,   -1.4,   -1.2,   -1.2,   -1.2,   -1.1,   -1.1,   -1.2,   -1.2,   -1.3,   -1.4,   -1.5,   -1.4,   -1.3,   -1.3,   -1.3,   -1.3,   -1.3,   -1.2,   -1.3,   -1.3,   -1.2,   -1.1
2011/07/28 08:00,   -7.2,   -7.3,   -7.3,   -7.3,   -7.3,   -7.5,   -7.3,   -7.1,   -7.1,   -7.1,   -7.1,   -7.2,   -7.3,   -7.4,   -7.5,   -7.6,   -7.6,   -7.6,   -7.5,   -7.6,   -7.7,   -7.7,   -7.7,   -7.7,   -7.7,   -7.7,   -7.7,   -7.7,   -7.7,   -7.8,   -7.8,   -7.8,   -7.9,   -7.9,   -8.0,   -7.7,   -7.1,   -6.2,   -4.7,   -3.4,   -2.8,   -2.4,   -2.2,   -2.1,   -2.1,   -2.1,   -2.1,   -2.0,   -2.0,   -1.9,   -1.8,   -1.8,   -1.8,   -1.7,   -1.7,   -1.7,   -1.7,   -1.7,   -1.7,   -1.7,   -1.7,   -1.8,   -1.8,   -1.8,   -1.8,   -1.8,   -1.7,   -1.6,   -1.5,   -1.4,   -1.3,   -1.3,   -1.2,   -1.1,   -1.0,   -0.9,   -0.7,   -0.7,   -0.6,   -0.6
2011/07/28 08:10,   -6.3,   -6.2,   -6.2,   -6.1,   -6.1,   -6.1,   -6.0,   -6.0,   -6.1,   -6.2,   -6.2,   -6.1,   -6.1,   -6.1,   -6.0,   -6.1,   -6.1,   -6.1,   -6.2,   -6.3,   -6.3,   -6.2,   -6.2,   -6.1,   -6.3,   -6.4,   -6.5,   -6.9,   -6.9,   -7.0,   -7.0,   -6.8,   -6.7,   -6.8,   -6.8,   -6.6,   -6.6,   -6.3,   -5.2,   -3.6,   -2.6,  999.0,   -2.1,   -2.1,   -2.1,   -2.2,   -2.2,   -2.3,   -2.3,   -2.3,   -2.3,   -2.3,   -2.2,   -2.1,   -2.0,   -1.9,   -1.8,   -1.6,   -1.6,   -1.6,   -1.7,   -1.8,   -1.8,   -1.8,   -1.5,   -1.4,   -1.4,   -1.4,   -1.4,   -1.3,   -1.2,   -1.0,   -0.8,   -0.7,   -0.7,   -0.6,   -0.6,   -0.7,   -0.7,   -0.6
2011/07/28 08:20,   -6.2,   -6.4,   -6.5,   -6.5,   -6.5,   -6.3,   -6.4,   -6.6,   -6.6,   -6.6,   -6.8,   -6.8,   -7.0,   -6.9,   -6.9,   -7.0,   -7.1,   -7.2,   -7.2,   -7.3,   -7.2,   -7.2,   -7.4,   -7.4,   -7.4,   -7.4,   -7.7,   -7.7,   -7.8,   -7.8,   -7.8,   -7.9,   -7.9,   -7.9,   -8.1,   -6.9,   -6.1,   -5.9,   -4.5,   -3.1,   -2.7,   -2.4,   -2.3,   -2.2,   -2.0,   -2.0,   -2.1,   -2.1,   -2.1,   -2.2,   -2.2,   -2.2,   -2.1,   -1.9,   -1.7,   -1.6,   -1.6,   -1.7,   -1.7,   -1.8,   -1.7,   -1.7,   -1.6,   -1.6,   -1.5,   -1.5,   -1.4,   -1.4,   -1.4,   -1.2,   -1.1,   -1.0,   -0.9,   -0.9,   -0.9,   -1.0,   -1.0,   -1.0,   -1.0,   -0.9
2011/07/28 08:30,   -7.5,   -7.2,   -7.5,   -7.1,   -7.4,   -7.5,   -7.8,   -8.0,   -7.9,   -7.3,   -7.8,   -8.0,   -7.9,   -7.6,   -7.5,   -7.5,   -7.5,   -8.6,   -8.2,   -8.6,   -8.7,   -8.7,   -8.7,   -8.8,   -9.0,   -9.0,   -9.0,   -9.0,   -9.0,   -9.1,   -9.0,   -8.6,   -8.9,   -8.9,   -8.4,   -7.7,   -6.5,   -5.4,   -4.4,   -3.8,   -3.1,   -2.8,   -2.5,   -2.2,   -2.1,   -2.0,   -1.9,   -1.9,   -1.8,   -1.8,   -1.8,   -1.9,   -2.0,   -2.0,   -2.0,   -2.0,   -2.0,   -2.0,   -1.9,   -1.9,   -1.8,   -1.8,   -1.7,   -1.6,   -1.6,   -1.5,   -1.4,   -1.3,   -1.2,   -1.1,   -1.1,   -1.0,   -0.9,   -0.8,   -0.7,   -0.7,   -0.6,   -0.5,   -0.4,   -0.3
2011/07/28 08:40,   -7.9,  999.0,   -8.3,  999.0,   -7.9,   -7.3,   -7.2,   -7.3,   -7.4,   -7.2,   -7.0,   -6.9,   -6.9,   -7.0,   -7.1,   -7.3,   -7.4,   -7.4,   -7.5,   -7.7,   -7.9,   -8.0,   -8.1,   -8.2,   -8.8,   -9.0,   -8.9,   -8.9,   -8.8,   -8.8,   -8.9,   -9.1,   -9.1,   -8.8,   -8.6,   -7.8,   -6.7,   -5.4,   -4.7,   -4.0,   -3.3,   -2.9,   -2.8,   -2.6,   -2.5,   -2.4,   -2.3,   -2.3,   -2.3,   -2.2,   -2.2,   -2.0,   -2.1,   -1.9,   -1.9,   -1.8,   -1.8,   -1.7,   -1.6,   -1.5,   -1.4,   -1.4,   -1.3,   -1.1,   -1.0,   -1.0,   -0.9,   -0.9,   -0.9,   -0.7,   -0.7,   -0.5,   -0.5,   -0.4,   -0.4,   -0.4,   -0.4,   -0.4,   -0.4,   -0.4
2011/07/28 08:50,   -6.9,   -6.9,   -6.9,   -7.4,   -8.1,   -8.2,   -8.1,   -7.9,   -7.9,   -7.9,   -7.8,   -7.8,   -7.8,   -7.6,   -7.9,   -7.6,   -7.6,   -7.6,   -7.6,   -7.5,   -7.6,   -7.6,   -7.7,   -7.8,   -7.8,   -7.9,   -7.9,   -8.1,   -8.3,   -8.4,   -8.5,   -8.6,   -8.6,   -8.6,   -8.7,  999.0,   -7.1,   -5.7,  999.0,  999.0,   -2.5,   -2.5,   -2.4,   -2.3,   -2.3,   -2.1,   -2.1,   -2.0,   -1.9,   -1.9,   -1.8,   -1.8,   -1.9,   -2.0,   -2.0,   -2.0,   -1.9,   -1.8,   -1.7,   -1.7,   -1.6,   -1.6,   -1.5,   -1.5,   -1.4,   -1.3,   -1.2,   -1.2,   -1.1,   -1.0,   -0.9,   -0.8,   -0.8,   -0.7,   -0.7,   -0.7,   -0.7,   -0.8,   -0.8,   -0.7
2011/07/28 09:00,   -7.1,   -6.9,   -6.9,   -6.8,   -6.9,   -7.0,   -7.1,   -7.2,   -7.2,   -7.1,   -7.1,   -7.1,   -7.1,   -7.5,   -7.4,   -7.4,   -7.3,   -7.4,   -7.3,   -7.3,   -7.3,   -7.3,   -7.3,   -7.3,   -7.3,   -7.3,   -7.2,   -7.3,   -7.4,   -7.4,   -7.2,   -7.2,   -7.2,   -7.1,   -7.0,   -6.9,   -6.5,   -6.1,   -4.9,   -3.8,   -2.4,   -1.7,   -1.5,   -1.4,   -1.5,   -1.3,   -1.1,   -1.2,   -0.9,   -0.8,   -0.7,   -0.6,   -0.4,   -0.5,   -0.5,   -0.5,   -0.8,   -1.4,   -1.0,   -1.0,   -1.0,   -1.2,   -1.1,   -0.6,   -0.5,   -0.5,   -0.6,   -0.6,   -0.7,   -0.8,   -0.8,   -0.9,   -0.8,   -0.9,   -0.9,   -0.8,   -0.8,   -0.8,   -0.7,   -0.6
2011/07/28 09:10,   -5.7,   -5.5,   -5.7,   -5.7,   -5.6,   -5.5,   -5.5,   -5.4,   -5.4,   -5.4,   -5.4,   -5.4,   -5.6,   -5.5,   -5.4,   -5.4,   -5.4,   -5.6,   -5.5,   -5.5,   -5.6,   -5.7,   -5.7,   -5.7,   -5.7,   -5.6,   -5.6,   -5.5,   -5.5,   -5.4,   -5.5,   -5.4,   -5.5,   -5.6,   -5.8,   -6.0,   -6.0,   -6.3,   -5.5,   -3.8,   -2.7,   -2.1,   -2.0,   -1.8,   -1.7,   -1.6,   -1.6,   -1.7,   -1.6,   -1.6,   -1.6,   -1.5,   -1.3,   -1.3,   -1.0,   -1.1,   -1.1,   -0.4,   -0.1,   -0.2,   -0.3,   -0.1,   -0.2,   -1.3,   -0.9,   -0.2,   -0.5,   -1.0,   -0.5,   -0.4,   -0.3,   -0.2,   -0.2,   -0.2,   -0.7,   -0.5,   -0.9,   -0.9,   -0.9,   -0.7
2011/07/28 09:20,   -5.5,   -5.4,   -5.4,   -5.2,   -5.2,   -5.0,   -5.4,   -5.7,   -5.6,   -5.5,   -5.3,   -5.4,   -5.4,   -5.4,   -4.2,   -5.4,   -5.3,   -5.2,   -5.3,   -5.4,   -5.5,   -5.5,   -5.5,   -5.7,   -5.7,   -5.7,   -5.5,   -5.4,   -5.4,   -5.3,   -5.2,   -5.1,   -5.3,   -5.3,   -5.1,   -5.3,   -4.4,   -4.2,   -4.2,   -4.3,   -2.1,   -1.3,   -1.1,   -1.0,   -1.0,   -0.9,   -0.8,   -0.7,   -0.8,   -0.7,   -0.6,   -0.6,   -0.5,  999.0,   -0.0,   -0.0,  999.0,    0.1,   -0.3,   -0.0,   -0.2,   -0.1,    0.3,  999.0,  999.0,    0.3,    0.1,  999.0,  999.0,  999.0,  999.0,  999.0,  999.0,   -0.5,   -0.8,   -0.9,   -0.8,   -0.7,   -0.7,   -0.7
2011/07/28 09:30,   -1.1,   -0.4,   -0.9,   -0.3,   -0.9,   -0.8,   -0.8,   -0.6,   -0.6,   -0.1,   -0.2,   -0.2,   -0.6,   -0.2,   -0.2,   -0.1,   -0.2,   -0.2,   -0.0,   -1.2,   -1.2,   -0.3,   -0.2,   -1.3,  999.0,   -0.0,  999.0,  999.0,   -0.1,  999.0,   -0.1,  999.0,  999.0,   -2.0,   -2.0,   -1.9,   -1.8,   -1.8,   -1.8,   -2.2,   -1.3,   -1.0,   -1.0,   -1.1,   -1.1,   -1.0,   -0.9,   -0.8,   -0.7,   -0.7,   -0.6,   -0.4,   -0.4,  999.0,   -0.1,  999.0,   -0.1,    0.1,  999.0,    0.1,   -0.2,   -0.1,   -0.0,    0.0,  999.0,  999.0,  999.0,  999.0,  999.0,  999.0,  999.0,  999.0,  999.0,  999.0,  999.0,  999.0,  999.0,  999.0,  999.0,  999.0
2011/07/28 09:40,    0.0,    0.0,    0.0,   -0.0,    0.1,    0.0,   -0.0,    0.1,    0.0,   -0.1,    0.0,   -0.1,   -0.0,   -0.0,   -0.1,   -0.2,   -0.1,   -0.1,   -0.1,   -0.0,   -0.0,    0.0,   -0.0,   -0.0,   -0.1,   -0.0,    0.0,    0.0,   -0.1,   -0.1,   -0.1,   -0.0,    0.0,   -0.1,   -0.0,   -0.0,  999.0,   -0.0,   -0.0,    0.1,    0.1,    0.0,  999.0,    0.0,   -0.1,   -0.7,   -0.2,   -0.2,   -0.0,   -0.0,   -0.0,    0.0,    0.0,   -0.0,    0.1,    0.1,   -0.0,   -0.1,   -0.1,   -0.2,  999.0,    0.0,   -0.1,   -0.1,   -0.0,  999.0,  999.0,  999.0,  999.0,   -0.1,  999.0,  999.0,  999.0,  999.0,  999.0,  999.0,  999.0,  999.0,  999.0,  999.0
2011/07/28 09:50,   -0.0,   -0.0,    0.1,    0.1,    0.2,   -0.0,   -0.1,    0.1,    0.0,    0.0,    0.0,    0.1,    0.1,    0.1,    0.0,    0.0,    0.1,    0.1,    0.0,    0.1,   -0.0,   -0.0,    0.0,   -0.0,    0.0,    0.1,    0.0,    0.1,    0.1,    0.1,    0.1,   -0.1,   -0.1,   -0.0,    0.0,   -0.0,   -0.0,    0.0,   -0.0,    0.0,   -0.0,    0.0,   -0.0,   -0.0,   -0.1,   -0.1,    0.0,   -0.0,    0.0,    0.0,    0.0,    0.0,    0.0,    0.1,    0.0,    0.1,    0.1,    0.1,  999.0,  999.0,  999.0,   -0.0,   -0.0,    0.1,    0.0,  999.0,  999.0,  999.0,  999.0,  999.0,  999.0,    0.1,  999.0,   -0.0,  999.0,  999.0,  999.0,  999.0,  999.0,  999.0
2011/07/28 10:00,   -0.1,   -0.1,   -0.1,    0.0,   -0.1,   -0.0,   -0.1,    0.1,    0.1,    0.2,    0.4,    0.3,    0.2,    0.2,    0.1,    0.0,    0.0,    0.0,    0.0,   -0.0,   -0.1,   -0.1,    0.0,   -0.0,    0.0,    0.0,    0.0,   -0.0,   -0.1,   -0.0,    0.0,   -0.0,   -0.0,   -0.1,   -0.0,    0.0,   -0.0,   -0.1,   -0.0,   -0.0,   -0.0,  999.0,  999.0,    0.0,   -0.0,   -0.0,    0.1,    0.0,    0.1,    0.2,    0.1,    0.1,    0.2,    0.1,    0.1,   -0.0,    0.0,    0.2,    0.0,  999.0,  999.0,    0.0,    0.2,    0.0,    0.0,   -0.0,  999.0,  999.0,  999.0,  999.0,  999.0,    0.0,  999.0,    0.0,  999.0,  999.0,  999.0,  999.0,  999.0,  999.0
2011/07/28 10:10,   -0.0,   -0.0,   -0.1,   -0.1,    0.0,   -0.1,   -0.0,   -0.1,   -0.1,    0.0,   -0.2,   -0.2,   -0.1,   -0.2,   -0.2,   -0.1,   -0.1,   -0.1,   -0.1,   -0.2,   -0.5,   -0.2,   -0.1,   -0.1,   -0.0,   -0.1,   -0.0,   -0.1,   -0.1,   -0.0,   -0.0,   -0.0,    0.0,   -0.1,   -0.1,   -0.0,   -0.0,   -0.0,   -0.0,   -0.0,   -0.0,   -0.0,    0.0,   -0.0,    0.0,   -0.0,   -0.1,   -0.0,    0.0,    0.2,   -0.0,    0.0,    0.0,    0.0,   -0.0,   -0.0,    0.1,   -0.0,   -0.0,    0.0,  999.0,   -0.1,   -0.0,    0.0,    0.0,    0.0,  999.0,  999.0,  999.0,  999.0,    0.0,   -0.0,    0.0,   -0.1,   -0.0,  999.0,  999.0,  999.0,  999.0,  999.0
2011/07/28 10:20,    0.0,    0.0,   -0.0,   -0.0,   -0.1,   -0.0,    0.0,    0.0,    0.0,    0.0,    0.0,   -0.0,   -0.0,   -0.1,   -0.1,   -0.0,   -0.0,   -0.0,   -0.0,   -0.0,   -0.1,   -0.1,   -0.0,   -0.0,   -0.0,   -0.1,   -0.1,   -0.0,   -0.1,    0.0,    0.0,   -0.0,    0.0,    0.0,   -0.0,    0.0,   -0.0,   -0.0,    0.0,    0.0,    0.1,    0.0,    0.0,    0.0,    0.0,    0.1,    0.0,   -0.0,    0.0,    0.1,   -0.0,   -0.0,    0.0,   -0.0,   -0.0,   -0.1,    0.0,    0.0,   -0.0,    0.0,   -0.0,    0.1,    0.0,    0.0,   -0.0,  999.0,  999.0,   -0.0,    0.0,   -0.1,   -0.0,  999.0,  999.0,  999.0,   -0.0,  999.0,  999.0,  999.0,  999.0,  999.0
2011/07/28 10:30,   -0.0,   -0.0,   -0.1,   -0.1,   -0.0,   -0.0,    0.0,   -0.0,   -0.0,    0.0,   -0.0,   -0.0,    0.0,    0.0,    0.1,    0.0,    0.0,    0.0,    0.0,    0.0,    0.0,    0.1,    0.1,    0.0,    0.0,    0.0,    0.1,    0.0,    0.0,    0.0,    0.1,    0.1,    0.1,    0.3,    0.1,    0.0,    0.0,    0.0,    0.0,   -0.0,    0.0,    0.0,   -0.2,   -0.0,   -0.1,   -0.3,   -0.2,    0.0,    0.0,    0.0,    0.0,   -0.0,    0.0,    0.0,   -0.1,   -0.1,   -0.0,   -0.0,   -0.0,   -0.0,  999.0,   -0.0,  999.0,    0.0,    0.0,   -0.0,    0.0,   -0.0,    0.1,   -0.0,   -0.0,    0.0,  999.0,  999.0,    0.0,  999.0,  999.0,  999.0,  999.0,  999.0
2011/07/28 10:40,    0.0,    0.0,    0.0,   -0.1,   -0.0,    0.0,    0.1,    0.1,   -0.0,    0.0,    0.0,   -0.0,   -0.1,   -0.1,   -0.1,    0.0,    0.0,    0.1,    0.1,    0.1,    0.2,    0.2,    0.1,    0.1,    0.2,    0.3,    0.0,    0.0,    0.0,    0.1,    0.1,    0.1,    0.0,    0.1,    0.0,    0.1,   -0.0,   -0.0,  999.0,   -0.0,    0.0,   -0.1,   -0.0,   -0.1,   -0.3,   -0.3,   -0.1,   -0.0,    0.0,   -0.0,    0.0,    0.0,   -0.1,   -0.0,   -0.0,   -0.0,    0.0,    0.0,   -0.0,   -0.0,    0.0,   -0.0,    0.0,    0.0,  999.0,    0.0,  999.0,  999.0,  999.0,  999.0,  999.0,    0.0,  999.0,    0.0,  999.0,  999.0,  999.0,  999.0,  999.0,  999.0
2011/07/28 10:50,    0.0,   -0.0,    0.0,   -0.1,    0.0,   -0.1,   -0.2,   -0.0,   -0.1,   -0.1,   -0.1,   -0.1,   -0.1,   -0.1,   -0.1,   -0.0,    0.0,    0.2,    0.2,    0.2,    0.3,    0.3,    0.2,    0.1,    0.2,    0.2,    0.0,    0.0,    0.1,    0.0,   -0.1,   -0.0,   -0.1,   -0.1,   -0.1,   -0.1,   -0.2,   -0.2,   -0.0,   -0.0,   -0.0,   -0.1,   -0.3,   -0.3,   -0.3,   -0.3,   -0.2,   -0.2,   -0.1,   -0.1,   -0.0,   -0.1,   -0.1,   -0.3,   -0.2,   -0.1,    0.0,   -0.0,  999.0,  999.0,  999.0,  999.0,    0.0,   -0.0,  999.0,    0.1,  999.0,  999.0,  999.0,  999.0,    0.1,   -0.0,  999.0,  999.0,  999.0,  999.0,  999.0,  999.0,  999.0,  999.0
2011/07/28 11:00,    0.0,    0.0,    0.0,   -0.1,    0.0,    0.0,    0.1,   -0.0,   -0.1,   -0.0,   -0.0,   -0.0,    0.0,   -0.0,    0.0,    0.0,    0.1,    0.2,    0.2,    0.3,    0.4,    0.3,    0.4,    0.3,    0.1,    0.2,    0.3,    0.2,    0.1,    0.1,    0.1,   -0.0,    0.1,    0.1,   -0.0,    0.0,   -0.1,   -0.4,   -0.6,   -0.5,   -0.5,   -0.3,   -0.4,   -0.4,   -0.4,   -0.4,   -0.1,    0.0,   -0.0,  999.0,   -0.0,   -0.1,   -0.2,   -0.1,   -0.0,   -0.1,    0.0,   -0.0,    0.0,  999.0,    0.0,    0.0,    0.0,    0.0,  999.0,   -0.0,  999.0,  999.0,  999.0,    0.1,   -0.1,    0.1,  999.0,    0.0,  999.0,  999.0,  999.0,  999.0,  999.0,  999.0
2011/07/28 11:10,    0.0,   -0.0,   -0.0,   -0.0,    0.0,    0.1,    0.0,    0.0,   -0.1,   -0.0,   -0.1,   -0.1,   -0.1,   -0.1,   -0.1,   -0.1,   -0.1,   -0.1,   -0.0,   -0.0,   -0.0,    0.1,    0.2,    0.1,    0.1,    0.1,    0.1,    0.1,    0.1,    0.2,    0.1,    0.1,   -0.0,    0.0,   -0.0,   -0.0,   -0.1,   -0.1,   -0.3,   -0.3,   -0.4,   -0.3,   -0.2,   -0.3,   -0.2,   -0.0,    0.0,   -0.0,    0.0,    0.0,   -0.0,   -0.1,    0.0,    0.0,    0.1,   -0.1,    0.0,   -0.0,   -0.0,   -0.0,  999.0,    0.0,   -0.1,    0.1,   -0.0,    0.0,    0.0,  999.0,  999.0,  999.0,  999.0,  999.0,  999.0,  999.0,  999.0,  999.0,  999.0,  999.0,  999.0,  999.0
2011/07/28 11:20,   -0.0,    0.0,    0.0,   -0.1,   -0.1,   -0.0,   -0.0,   -0.1,   -0.1,   -0.1,   -0.2,   -0.1,   -0.1,   -0.1,    0.0,    0.1,    0.1,    0.1,    0.1,    0.2,    0.3,    0.3,    0.3,    0.3,    0.1,    0.2,    0.1,    0.1,    0.0,    0.2,    0.2,    0.1,    0.1,    0.1,    0.0,   -0.0,    0.0,   -0.1,   -0.2,   -0.2,   -0.1,   -0.0,    0.0,    0.1,    0.2,    0.2,    0.2,    0.0,   -0.0,   -0.0,    0.3,    0.3,    0.2,    0.1,    0.0,    0.0,    0.0,    0.0,   -0.0,   -0.0,    0.1,    0.0,   -0.0,  999.0,    0.1,   -0.1,  999.0,    0.1,   -0.1,  999.0,  999.0,  999.0,   -0.1,  999.0,  999.0,  999.0,  999.0,  999.0,  999.0,  999.0
2011/07/28 11:30,   -0.0,   -0.1,   -0.1,   -0.1,    0.0,    0.0,   -0.2,   -0.1,   -0.1,   -0.1,   -0.1,   -0.1,   -0.0,   -0.0,   -0.1,   -0.1,   -0.0,   -0.1,   -0.1,   -0.1,   -0.2,   -0.1,   -0.1,   -0.1,   -0.0,   -0.0,   -0.1,   -0.1,   -0.1,   -0.0,   -0.0,   -0.1,   -0.1,   -0.1,    0.0,    0.0,    0.0,    0.1,    0.2,    0.2,    0.2,    0.2,    0.3,    0.3,    0.3,    0.3,    0.2,    0.0,   -0.0,    0.0,    0.0,    0.0,   -0.0,    0.0,    0.0,   -0.0,    0.0,    0.0,    0.1,  999.0,  999.0,   -0.0,  999.0,   -0.0,   -0.1,  999.0,  999.0,  999.0,  999.0,  999.0,  999.0,  999.0,  999.0,  999.0,  999.0,  999.0,  999.0,  999.0,  999.0,  999.0
2011/07/28 11:40,    0.0,   -0.0,   -0.1,   -0.0,    0.1,    0.0,   -0.0,   -0.0,   -0.1,   -0.1,   -0.4,   -0.4,   -0.4,   -0.4,   -0.4,   -0.3,   -0.1,   -0.1,   -0.1,   -0.1,   -0.0,   -0.1,    0.0,    0.1,   -0.0,    0.1,    0.1,    0.0,    0.1,    0.0,    0.0,    0.1,    0.1,    0.1,    0.1,    0.1,    0.1,    0.1,    0.1,    0.2,    0.2,    0.3,    0.4,    0.2,    0.2,    0.3,    0.1,    0.0,    0.0,    0.0,   -0.0,    0.0,   -0.0,    0.0,    0.0,   -0.0,    0.0,  999.0,    0.0,  999.0,   -0.0,    0.0,  999.0,   -0.0,   -0.0,   -0.1,  999.0,  999.0,    0.1,  999.0,  999.0,  999.0,  999.0,  999.0,  999.0,  999.0,  999.0,  999.0,  999.0,  999.0
2011/07/28 11:50,   -0.1,   -0.1,   -0.1,   -0.0,   -0.1,   -0.1,   -0.0,   -0.1,   -0.2,   -0.2,   -0.4,   -0.2,   -0.2,   -0.1,   -0.1,   -0.0,    0.0,    0.0,    0.0,    0.1,    0.2,    0.1,    0.3,    0.2,  999.0,    0.2,    0.2,    0.0,    0.0,    0.1,    0.3,    0.5,    0.5,    0.4,    0.4,    0.6,    0.8,  999.0,  999.0,  999.0,  999.0,    0.0,  999.0,   -0.0,    0.4,    0.5,   -0.0,    0.0,    0.1,    0.5,    0.0,    0.0,    0.0,    0.0,    0.1,    0.0,   -0.0,    0.0,   -0.1,   -0.0,  999.0,   -0.0,   -0.1,   -0.0,   -0.1,   -0.0,  999.0,    0.0,  999.0,  999.0,  999.0,  999.0,  999.0,  999.0,  999.0,  999.0,  999.0,  999.0,  999.0,  999.0
2011/07/28 12:00,   -0.1,   -0.2,   -0.2,   -0.1,   -0.0,    0.1,    0.1,   -0.0,   -0.0,    0.0,    0.1,    0.1,    0.2,    0.1,    0.0,    0.0,    0.0,    0.0,   -0.0,    0.0,    0.1,    0.0,    0.0,   -0.0,   -0.0,   -0.0,   -0.1,   -0.1,   -0.1,    0.0,    0.1,   -0.1,   -0.0,   -0.1,   -0.1,   -0.1,   -0.0,   -0.2,   -0.1,   -0.1,   -0.1,   -0.1,   -0.1,   -0.0,    0.1,   -0.0,   -0.0,    0.1,    0.0,  999.0,   -0.0,   -0.0,    0.0,   -0.0,   -0.0,   -0.0,    0.0,    0.0,   -0.0,    0.1,    0.0,    0.0,   -0.0,   -0.0,   -0.0,   -0.1,    0.0,  999.0,  999.0,   -0.0,   -0.1,  999.0,  999.0,   -0.0,  999.0,  999.0,  999.0,  999.0,  999.0,  999.0
2011/07/28 12:10,   -0.0,   -0.1,   -0.6,   -0.4,   -0.3,   -0.3,    0.1,    0.1,    0.0,    0.2,    0.1,    0.0,   -0.1,   -0.1,   -0.0,    0.1,    0.0,   -0.0,   -0.1,   -0.1,   -0.2,   -0.2,   -0.3,   -0.2,   -0.2,   -0.0,   -0.1,   -0.1,   -0.3,   -0.2,   -0.1,   -0.3,   -0.2,   -0.2,   -0.2,   -0.2,   -0.3,   -0.3,   -0.3,   -0.3,   -0.2,   -0.0,   -0.0,    0.0,    0.1,   -0.0,    0.1,    0.3,    0.2,    0.0,    0.1,    0.0,   -0.0,    0.0,   -0.0,    0.0,    0.0,   -0.0,   -0.0,  999.0,  999.0,  999.0,   -0.0,    0.0,    0.0,    0.0,   -0.1,   -0.0,   -0.0,    0.0,   -0.0,    0.0,  999.0,  999.0,  999.0,  999.0,  999.0,  999.0,  999.0,  999.0
2011/07/28 12:20,   -0.2,   -0.1,   -0.1,   -0.3,   -0.2,   -0.1,    0.2,    0.1,    0.3,    0.4,    0.2,    0.2,    0.0,   -0.1,   -0.1,   -0.0,   -0.0,   -0.0,   -0.1,   -0.1,   -0.2,   -0.1,   -0.3,   -0.3,   -0.2,   -0.1,   -0.1,   -0.1,   -0.3,   -0.3,   -0.3,   -0.4,   -0.2,   -0.3,   -0.2,   -0.3,   -0.1,   -0.3,   -0.1,   -0.2,   -0.2,   -0.0,    0.0,   -0.1,   -0.1,    0.2,   -0.2,    0.0,   -0.2,   -0.4,   -0.0,   -0.0,    0.1,   -0.0,   -0.1,  999.0,    0.0,   -0.0,   -0.0,    0.0,    0.0,    0.0,    0.0,  999.0,  999.0,    0.0,  999.0,  999.0,    0.0,   -0.1,  999.0,  999.0,  999.0,  999.0,  999.0,  999.0,  999.0,  999.0,  999.0,  999.0
2011/07/28 12:30,   -0.0,    0.0,    0.0,   -0.2,   -0.0,   -0.1,    0.0,    0.2,    0.1,   -0.0,    0.0,   -0.1,   -0.2,   -0.2,   -0.3,   -0.2,   -0.1,   -0.1,   -0.0,   -0.1,   -0.2,   -0.3,   -0.2,   -0.2,   -0.1,   -0.1,   -0.2,   -0.0,   -0.0,   -0.2,   -0.4,   -0.5,   -0.5,   -0.5,   -0.6,   -0.7,   -0.8,   -1.0,   -1.0,   -1.1,   -0.6,   -0.0,   -0.2,   -0.4,   -0.4,   -0.3,   -0.1,   -0.1,   -0.1,    0.0,    0.0,   -0.0,   -0.1,   -0.0,   -0.0,    0.0,    0.0,   -0.0,   -0.0,   -0.0,   -0.0,  999.0,  999.0,    0.0,   -0.0,  999.0,    0.0,    0.0,    0.0,   -0.0,   -0.0,  999.0,  999.0,  999.0,  999.0,  999.0,  999.0,  999.0,  999.0,  999.0
2011/07/28 12:40,   -0.3,   -0.5,   -0.3,   -0.1,    0.4,    0.2,    0.0,    0.0,    0.1,    0.0,   -0.2,   -0.1,   -0.2,   -0.3,   -0.2,   -0.1,   -0.1,   -0.0,    0.0,    0.0,    0.0,    0.0,    0.0,    0.0,   -0.1,    0.0,    0.1,   -0.0,   -0.1,   -0.1,   -0.1,   -0.0,   -0.2,   -0.1,    0.0,    0.1,    0.2,    0.6,    0.5,    0.7,    0.8,    0.2,    0.1,    0.0,    0.0,    0.0,   -0.0,    0.0,    0.1,    0.1,    0.0,   -0.0,    0.0,    0.0,   -0.0,   -0.0,    0.0,   -0.0,    0.0,    0.1,  999.0,   -0.0,   -0.0,   -0.0,    0.0,    0.0,   -0.0,  999.0,   -0.0,    0.0,    0.1,    0.0,  999.0,    0.1,  999.0,  999.0,  999.0,  999.0,  999.0,  999.0
2011/07/28 12:50,    0.1,    0.2,    0.2,    0.2,    0.1,    0.3,    0.1,    0.0,    0.1,    0.0,   -0.1,   -0.1,   -0.1,   -0.2,   -0.2,   -0.2,   -0.1,   -0.1,   -0.0,   -0.0,    0.0,    0.0,    0.1,    0.1,   -0.0,    0.1,    0.1,    0.0,    0.0,    0.2,    0.2,    0.3,    0.5,    0.6,    0.6,    0.7,    0.9,    0.8,    1.0,    1.0,    1.0,    0.9,    0.7,    0.7,    0.2,    0.0,   -0.0,   -0.0,    0.1,    0.0,    0.1,    0.0,   -0.0,    0.0,   -0.0,    0.0,    0.1,  999.0,  999.0,  999.0,  999.0,  999.0,   -0.0,    0.0,  999.0,   -0.0,  999.0,  999.0,  999.0,  999.0,  999.0,    0.0,  999.0,  999.0,  999.0,  999.0,  999.0,  999.0,  999.0,  999.0
2011/07/28 13:00,    0.0,    0.0,   -0.1,   -0.3,   -0.3,   -0.3,    0.0,   -0.0,    0.0,   -0.1,   -0.2,   -0.2,   -0.2,   -0.3,   -0.3,   -0.2,   -0.1,   -0.2,   -0.2,   -0.3,   -0.2,   -0.3,   -0.3,   -0.3,   -0.2,   -0.3,   -0.3,   -0.2,   -0.1,   -0.1,    0.0,    0.0,    0.1,    0.4,    0.6,    0.7,    0.8,    0.6,    0.7,    0.8,    0.6,    0.6,  999.0,  999.0,   -0.0,   -0.0,   -0.0,   -0.1,    0.1,  999.0,   -0.0,  999.0,   -0.1,  999.0,   -0.0,  999.0,   -0.0,   -0.0,  999.0,  999.0,  999.0,  999.0,    0.1,  999.0,  999.0,  999.0,   -0.0,  999.0,  999.0,  999.0,  999.0,  999.0,  999.0,  999.0,  999.0,  999.0,  999.0,  999.0,  999.0,  999.0
2011/07/28 13:10,   -0.0,   -0.1,   -0.0,   -0.2,   -0.3,   -0.4,   -0.3,   -0.2,   -0.3,   -0.3,   -0.4,   -0.4,   -0.3,   -0.4,   -0.4,   -0.5,   -0.4,   -0.4,   -0.2,   -0.1,   -0.1,   -0.2,   -0.1,   -0.1,   -0.0,   -0.0,   -0.1,   -0.1,   -0.1,   -0.2,   -0.1,    0.0,   -0.1,   -0.3,   -0.0,  999.0,    0.6,  999.0,    0.0,   -0.1,    0.2,   -0.2,    0.0,   -0.0,    0.2,   -0.0,   -0.0,   -0.1,  999.0,  999.0,   -0.0,    0.1,   -0.0,   -0.0,    0.0,    0.0,    0.1,    0.0,    0.0,  999.0,  999.0,   -0.0,    0.0,   -0.0,  999.0,  999.0,  999.0,  999.0,  999.0,  999.0,  999.0,  999.0,  999.0,  999.0,  999.0,  999.0,  999.0,  999.0,  999.0,  999.0
2011/07/28 13:20,    0.1,    0.2,    0.1,   -0.1,   -0.3,   -0.4,   -0.3,   -0.6,   -0.6,   -0.7,   -0.8,   -0.6,   -0.4,   -0.3,   -0.3,   -0.3,   -0.3,    0.0,    0.1,    0.1,    0.1,    0.1,    0.1,    0.2,    0.0,    0.1,    0.2,    0.1,    0.2,    0.2,    0.2,    0.3,    0.4,    0.4,    0.3,    0.4,  999.0,  999.0,  999.0,  999.0,  999.0,  999.0,  999.0,    0.4,    0.5,  999.0,  999.0,  999.0,  999.0,  999.0,  999.0,  999.0,  999.0,    0.1,  999.0,   -0.1,   -0.1,  999.0,  999.0,  999.0,  999.0,   -0.0,    0.0,    0.0,  999.0,  999.0,  999.0,  999.0,  999.0,  999.0,  999.0,  999.0,  999.0,  999.0,  999.0,  999.0,  999.0,  999.0,  999.0,  999.0
2011/07/28 13:30,   -0.1,    0.3,    0.0,   -0.3,   -0.6,   -0.4,   -0.4,   -0.4,   -0.7,   -0.8,   -1.0,   -1.0,   -0.8,   -0.6,   -0.5,   -0.3,   -0.2,   -0.2,   -0.1,   -0.2,   -0.2,   -0.4,   -0.4,   -0.4,   -0.5,   -0.4,   -0.5,   -0.3,   -0.1,   -0.1,    0.1,    0.1,    0.2,    0.4,    0.4,    0.5,    0.5,    0.7,    0.7,  999.0,  999.0,  999.0,  999.0,  999.0,  999.0,  999.0,  999.0,  999.0,  999.0,  999.0,  999.0,  999.0,  999.0,  999.0,    0.0,    0.0,   -0.0,  999.0,  999.0,  999.0,  999.0,   -0.0,    0.0,   -0.0,    0.0,  999.0,  999.0,   -0.0,  999.0,  999.0,  999.0,  999.0,  999.0,  999.0,  999.0,  999.0,    0.1,    0.1,  999.0,    0.1
2011/07/28 13:40,   -0.1,   -0.3,   -0.5,   -0.1,   -0.1,    0.2,    0.1,    0.1,    0.2,    0.1,    0.2,    0.3,    0.2,   -0.0,   -0.1,   -0.2,    0.0,    0.0,    0.0,    0.0,    0.0,    0.0,    0.0,    0.2,    0.3,    0.4,    0.3,    0.4,    0.4,    0.5,    1.2,    0.6,  999.0,    0.6,    0.6,    0.6,    0.6,    0.5,    0.6,    1.0,  999.0,  999.0,    0.3,  999.0,  999.0,  999.0,    0.2,  999.0,    0.0,  999.0,  999.0,  999.0,  999.0,  999.0,  999.0,    0.2,  999.0,  999.0,  999.0,  999.0,  999.0,  999.0,  999.0,  999.0,  999.0,  999.0,  999.0,  999.0,  999.0,  999.0,  999.0,  999.0,  999.0,  999.0,  999.0,  999.0,  999.0,    0.1,  999.0,    0.1
2011/07/28 13:50,    0.1,    0.5,    0.7,    0.5,    0.4,    0.2,    0.3,    0.2,    0.4,    0.4,    0.4,    0.4,    0.3,    0.2,    0.1,    0.1,    0.1,    0.1,    0.1,    0.2,    0.2,    0.2,    0.3,    0.3,    0.2,    0.3,    0.4,    0.4,    0.4,    0.4,    0.6,    0.1,    0.6,    0.6,    0.6,    0.6,    0.6,    0.6,    0.6,    0.3,    0.4,    0.2,  999.0,  999.0,    0.0,  999.0,  999.0,    0.4,  999.0,  999.0,  999.0,  999.0,  999.0,  999.0,  999.0,  999.0,  999.0,  999.0,  999.0,  999.0,  999.0,  999.0,  999.0,  999.0,  999.0,  999.0,  999.0,  999.0,  999.0,  999.0,  999.0,  999.0,  999.0,  999.0,  999.0,  999.0,  999.0,  999.0,  999.0,  999.0
2011/07/28 14:00,   -0.0,    0.0,   -0.1,    0.3,    0.1,    0.2,    0.2,    0.4,    0.9,    0.8,    0.9,    0.9,    0.5,    0.6,    0.4,    0.7,    0.5,    0.4,    0.6,    0.7,    0.8,    0.8,    0.8,    0.8,    0.6,    0.8,    0.8,    0.8,    0.5,    0.5,    0.7,    0.8,    0.8,    0.3,    0.3,    1.1,    0.6,    0.7,    0.6,    0.5,    0.3,    0.4,    0.2,    0.2,    0.1,    0.1,    0.1,    0.4,  999.0,  999.0,  999.0,  999.0,  999.0,  999.0,  999.0,  999.0,  999.0,  999.0,  999.0,  999.0,  999.0,  999.0,  999.0,  999.0,  999.0,  999.0,  999.0,  999.0,  999.0,  999.0,  999.0,  999.0,  999.0,  999.0,  999.0,  999.0,  999.0,  999.0,  999.0,  999.0
2011/07/28 14:10,    0.0,   -0.1,   -0.2,   -0.6,   -0.2,   -0.6,   -0.6,   -0.1,   -0.1,   -0.4,   -0.4,   -0.4,   -0.2,   -0.2,    0.0,    0.0,   -0.2,   -0.2,   -0.2,   -0.4,   -0.2,   -0.2,    0.1,    0.0,    0.0,    0.1,    0.0,   -0.0,    0.1,    0.1,    0.2,    0.2,    0.1,    0.0,    0.0,   -0.1,   -0.1,   -0.1,   -0.1,   -0.1,   -0.1,   -0.1,   -0.1,   -0.2,   -0.2,   -0.2,   -0.3,  999.0,    0.3,    0.2,   -0.2,  999.0,  999.0,    0.0,  999.0,  999.0,  999.0,  999.0,  999.0,  999.0,  999.0,  999.0,  999.0,  999.0,  999.0,  999.0,  999.0,  999.0,  999.0,  999.0,  999.0,  999.0,  999.0,  999.0,  999.0,  999.0,  999.0,  999.0,  999.0,  999.0
2011/07/28 14:20,   -0.0,   -0.0,   -0.1,   -0.1,    0.0,   -0.0,   -0.2,   -0.6,   -0.6,   -0.6,   -0.6,   -0.4,   -0.3,   -0.3,    0.1,    0.1,    0.0,   -0.0,    0.1,   -0.0,    0.0,    0.0,   -0.0,   -0.3,   -0.1,   -0.1,   -0.1,   -0.1,   -0.1,    0.1,    0.1,    0.2,    0.2,    0.4,    0.4,    0.3,    0.3,    0.1,    0.1,    0.3,    0.4,    0.4,    0.6,    0.1,    0.2,    0.3,    0.4,    0.7,    0.5,    0.4,    0.3,    0.1,    0.2,    0.3,    0.4,    0.4,    0.2,    0.2,    0.3,    0.4,    0.4,    0.4,    0.4,    0.4,    0.3,  999.0,  999.0,  999.0,  999.0,  999.0,  999.0,  999.0,  999.0,  999.0,  999.0,  999.0,  999.0,  999.0,  999.0,  999.0
2011/07/28 14:30,   -1.5,   -1.3,   -1.4,   -1.4,   -1.4,   -2.9,   -0.9,   -2.1,   -0.8,   -2.3,   -1.4,   -1.3,   -1.2,   -1.3,   -1.6,   -1.8,   -1.2,   -0.9,   -0.5,    0.6,    0.9,   -0.4,   -0.2,   -0.3,   -0.8,    0.1,    0.4,    0.6,    0.8,    2.0,    2.0,    0.5,   -0.4,    0.5,    1.6,    1.0,    0.9,    0.6,   -0.3,   -0.1,   -0.2,    0.1,    0.3,   -0.3,   -0.3,   -0.2,   -0.5,   -0.5,   -0.6,   -0.7,   -0.8,   -0.8,   -0.6,   -0.5,   -0.5,   -0.6,   -0.2,   -0.5,   -0.5,   -0.4,   -0.5,   -0.3,   -0.2,   -0.4,    0.1,   -1.4,   -1.1,   -2.7,   -1.0,   -2.0,  999.0,  999.0,  999.0,   -1.6,   -1.3,   -1.1,   -1.2,   -1.2,   -1.4,   -1.2
2011/07/28 14:40,   -5.2,   -5.1,   -7.4,   -7.3,   -6.5,   -6.0,   -6.1,   -6.2,   -6.1,   -6.0,   -5.9,   -6.0,   -6.1,   -6.1,   -6.1,   -6.1,   -5.8,   -5.4,   -4.9,   -4.6,   -4.1,   -3.6,   -3.4,   -2.9,   -3.7,   -3.7,   -3.3,   -3.5,   -7.7,   -4.1,   -3.4,   -4.2,   -3.3,   -4.5,   -3.6,   -3.8,   -3.4,   -3.5,   -4.4,   -3.0,   -5.7,   -3.5,   -3.2,   -5.4,   -5.4,   -3.3,   -4.0,   -5.3,   -3.3,   -3.5,   -3.3,   -2.9,   -3.1,   -3.1,   -3.0,   -2.6,   -2.8,   -2.2,   -2.3,   -2.3,   -2.8,   -2.6,   -2.8,   -3.3,   -3.0,   -2.9,   -3.4,   -3.1,   -2.9,   -2.3,   -2.5,   -1.7,   -1.0,   -0.8,   -1.1,   -1.3,   -1.2,   -1.1,   -1.3,   -1.5
2011/07/28 14:50,  999.0,  999.0,  999.0,  999.0,  999.0,  999.0,  999.0,  999.0,   -7.0,   -6.8,   -6.6,   -6.5,   -6.7,   -6.6,   -6.2,   -5.9,   -5.7,   -5.9,   -5.8,   -5.4,   -5.4,   -4.7,   -4.5,   -4.3,   -5.0,   -5.0,   -8.3,  999.0,   -5.2,   -5.2,  999.0,  999.0,   -4.2,   -3.7,   -4.0,   -1.2,   -3.7,  999.0,  999.0,   -5.5,   -5.5,   -5.4,   -5.3,   -5.3,   -4.7,   -5.2,   -4.6,   -3.7,   -6.1,  999.0,  999.0,   -5.1,   -4.0,   -3.3,  999.0,   -2.3,   -4.6,   -2.4,   -2.7,   -1.7,   -1.4,   -3.4,   -3.1,   -0.8,  999.0,   -1.7,   -1.4,  999.0,   -1.7,  999.0,   -1.1,   -0.5,   -0.7,   -0.2,   -0.2,    0.3,   -0.1,   -0.8,   -0.7,  999.0
2011/07/28 15:00,   -6.4,   -5.7,   -5.8,   -5.3,   -5.1,   -5.9,   -6.1,   -6.1,   -6.1,   -6.3,   -6.2,   -6.2,   -6.2,   -5.8,   -5.2,   -4.9,   -4.1,   -4.1,   -4.5,   -3.1,   -2.4,   -3.6,   -3.5,   -2.4,   -2.5,   -1.3,   -1.3,   -1.3,   -0.8,   -0.8,   -0.9,   -1.9,   -2.4,   -1.3,   -1.8,   -1.1,   -1.5,   -1.4,   -1.0,   -0.3,   -1.8,   -0.8,   -1.4,   -1.3,   -1.7,   -2.6,   -2.7,   -2.4,   -2.2,   -1.1,   -3.0,   -1.4,   -1.6,   -0.9,   -1.0,   -3.3,  999.0,   -3.7,   -3.9,   -3.0,   -3.2,   -3.7,   -3.5,   -3.0,   -3.6,   -0.2,   -2.3,  999.0,   -0.0,  999.0,   -0.2,   -1.2,    0.0,  999.0,  999.0,  999.0,    0.3,  999.0,  999.0,    1.2
2011/07/28 15:10,   -0.0,   -0.0,   -0.1,   -0.3,    0.0,    0.1,    0.2,    0.1,   -0.0,    0.0,   -0.2,    0.0,   -0.1,   -0.2,   -0.1,   -0.1,   -0.2,   -0.1,   -0.4,   -0.6,   -0.6,   -0.6,   -0.7,   -0.3,   -0.1,   -0.1,   -0.0,   -0.1,   -0.1,    0.0,   -0.0,   -0.0,    0.0,    0.1,    0.3,    0.3,    0.1,    0.2,    0.1,    0.2,    0.3,    0.1,    0.3,    0.2,    0.3,    0.2,    0.4,    0.6,    0.1,   -0.1,    0.1,   -0.1,  999.0,    0.1,    0.0,    0.1,    0.0,  999.0,  999.0,  999.0,   -0.0,  999.0,   -0.0,  999.0,    0.0,  999.0,  999.0,  999.0,  999.0,  999.0,  999.0,  999.0,  999.0,  999.0,  999.0,    0.1,    0.2,  999.0,  999.0,  999.0
2011/07/28 15:20,    0.0,    0.0,    0.1,    0.1,    0.1,    0.1,    0.1,    0.2,    0.1,    0.2,    0.2,    0.2,    0.1,    0.0,    0.0,    0.0,   -0.1,   -0.2,   -0.2,   -0.3,   -0.4,   -0.4,   -0.3,   -0.3,    0.0,    0.1,    0.1,    0.1,    0.2,    0.2,    0.2,    0.2,    0.3,    0.4,    0.3,    0.3,    0.3,    0.2,    0.2,    0.3,    0.3,    0.3,    0.3,    0.2,    0.2,    0.0,   -0.1,    0.1,   -0.0,    0.2,    0.2,    0.0,    0.0,   -0.0,   -0.0,   -0.1,    0.0,    0.1,    0.1,    0.0,    0.0,    0.0,    0.0,  999.0,   -0.0,    0.0,    0.0,  999.0,  999.0,  999.0,    0.0,   -0.0,   -0.1,  999.0,   -0.1,  999.0,  999.0,  999.0,  999.0,  999.0
2011/07/28 15:30,   -0.0,   -0.1,   -0.3,   -0.3,   -0.1,   -0.1,   -0.0,    0.0,    0.3,    0.5,    0.4,    0.2,    0.2,    0.1,    0.2,    0.2,    0.2,    0.0,   -0.1,    0.2,    0.4,    0.4,    0.3,    0.3,    0.1,    0.2,    0.2,    0.1,    0.2,    0.2,    0.2,    0.3,    0.4,    0.4,    0.4,    0.4,    0.2,    0.2,    0.1,    0.1,    0.1,    0.2,    0.4,    0.3,    0.2,    0.4,    0.6,    0.2,    0.1,    0.2,    0.2,    0.3,    0.7,    0.6,    0.3,    0.6,    0.5,    0.7,    0.8,   -0.0,  999.0,   -0.0,    0.0,   -0.0,    0.0,    0.0,    0.0,   -0.0,   -0.0,  999.0,    0.1,    0.0,    0.1,   -0.0,  999.0,  999.0,  999.0,  999.0,  999.0,  999.0
2011/07/28 15:40,    0.0,   -0.1,   -0.0,   -0.0,   -0.0,   -0.0,   -0.1,   -0.2,   -0.0,    0.1,   -0.0,    0.0,   -0.0,   -0.0,    0.1,    0.2,    0.3,    0.2,    0.3,    0.3,    0.3,    0.3,    0.3,    0.3,    0.4,    0.4,    0.5,    0.5,    0.7,    0.6,    0.6,    0.7,    0.6,    0.5,    0.4,    0.3,    0.4,    0.2,    0.2,    0.0,   -0.1,    0.2,    0.4,    0.4,    0.3,    0.1,    0.1,   -0.1,    0.2,    0.1,    0.2,    0.1,    0.0,    0.1,   -0.1,    0.1,    0.1,    0.4,    0.2,   -0.0,    0.1,    0.0,   -0.0,   -0.0,    0.0,   -0.0,   -0.0,    0.0,   -0.0,    0.0,  999.0,    0.0,    0.2,   -0.2,   -0.0,    0.2,    0.1,  999.0,  999.0,  999.0
2011/07/28 15:50,   -0.0,    0.0,    0.0,    0.0,    0.0,   -0.0,   -0.1,   -0.0,   -0.0,    0.0,    0.0,   -0.1,   -0.1,   -0.2,   -0.2,   -0.1,   -0.1,   -0.1,   -0.1,   -0.1,   -0.1,   -0.2,   -0.1,   -0.1,   -0.2,   -0.2,   -0.3,   -0.2,   -0.2,   -0.1,   -0.2,   -0.3,   -0.2,   -0.4,   -0.5,   -0.5,   -0.5,   -0.4,   -0.3,   -0.5,   -0.5,   -0.5,   -0.5,   -0.4,   -0.3,   -0.3,   -0.2,   -0.2,   -0.2,   -0.2,    0.1,    0.1,   -0.1,   -0.0,   -0.0,    0.0,    0.1,    0.0,   -0.1,   -0.1,    0.1,    0.3,    0.1,    0.0,    0.0,    0.0,    0.0,  999.0,    0.0,  999.0,   -0.0,    0.0,  999.0,  999.0,  999.0,  999.0,  999.0,  999.0,  999.0,  999.0
2011/07/28 16:00,   -0.0,    0.0,    0.0,    0.0,    0.1,    0.0,    0.1,    0.0,   -0.0,   -0.0,    0.1,    0.1,    0.1,    0.1,    0.1,    0.0,   -0.0,   -0.0,   -0.1,   -0.1,   -0.1,   -0.2,   -0.3,   -0.2,   -0.3,   -0.4,   -0.5,   -0.5,   -0.5,   -0.6,   -0.6,   -0.6,   -0.7,   -0.7,   -0.7,   -0.7,   -0.7,   -0.6,   -0.5,   -0.4,   -0.4,   -0.3,   -0.3,   -0.2,   -0.1,   -0.2,   -0.2,   -0.2,   -0.4,   -0.5,   -0.6,   -0.5,   -0.5,   -0.2,   -0.1,   -0.2,   -0.1,   -0.2,   -0.4,   -0.2,   -0.3,   -0.2,   -0.2,   -0.0,   -0.0,   -0.0,    0.0,  999.0,  999.0,  999.0,   -0.0,    0.0,  999.0,  999.0,  999.0,  999.0,  999.0,  999.0,  999.0,  999.0
2011/07/28 16:10,   -0.0,    0.0,   -0.0,    0.0,    0.0,    0.0,    0.0,    0.0,    0.0,   -0.0,    0.1,    0.1,    0.1,    0.1,    0.1,    0.0,    0.0,   -0.0,   -0.0,    0.0,   -0.0,   -0.0,   -0.1,   -0.1,   -0.1,   -0.2,   -0.2,   -0.1,   -0.2,   -0.2,   -0.2,   -0.2,   -0.2,   -0.2,   -0.2,   -0.2,   -0.3,   -0.1,   -0.1,   -0.2,   -0.3,   -0.1,   -0.4,   -0.3,   -0.5,   -0.5,   -0.5,   -0.6,   -0.7,   -0.9,   -0.8,   -0.8,   -0.6,   -0.5,   -0.3,   -0.2,   -0.0,   -0.1,   -0.3,   -0.7,   -0.6,   -0.5,   -0.4,  999.0,   -0.0,   -0.0,    0.0,  999.0,   -0.0,    0.0,   -0.0,    0.0,  999.0,  999.0,  999.0,  999.0,  999.0,  999.0,  999.0,  999.0
2011/07/28 16:20,    0.0,    0.0,    0.0,    0.0,   -0.0,   -0.0,    0.1,    0.1,    0.0,   -0.0,    0.1,    0.0,    0.1,    0.1,   -0.0,   -0.1,   -0.0,    0.0,    0.0,   -0.0,   -0.1,   -0.1,   -0.3,   -0.3,   -0.3,   -0.3,   -0.2,   -0.2,   -0.3,   -0.4,   -0.4,   -0.3,   -0.4,   -0.4,   -0.3,   -0.3,   -0.3,   -0.1,   -0.1,   -0.3,   -0.4,   -0.4,   -0.4,   -0.3,   -0.3,   -0.3,   -0.5,   -0.7,   -0.7,   -0.5,   -0.5,   -0.3,   -0.4,   -0.6,   -1.0,   -0.8,   -1.0,   -1.0,   -1.0,   -0.9,   -0.8,   -0.7,   -0.5,   -0.3,   -0.5,   -0.3,   -0.1,  999.0,   -0.0,  999.0,   -0.0,   -0.1,    0.0,   -0.0,    0.0,  999.0,  999.0,  999.0,  999.0,  999.0
2011/07/28 16:30,   -0.7,    0.0,   -0.0,   -0.0,   -0.0,   -0.0,   -0.0,    0.1,    0.0,    0.1,    0.2,    0.3,    0.2,    0.3,    0.3,    0.3,    0.3,    0.3,    0.1,    0.1,    0.0,   -0.1,   -0.1,   -0.2,   -1.0,   -1.0,   -1.1,   -1.1,   -1.2,   -1.2,   -1.2,   -1.2,   -1.1,   -1.2,   -1.2,   -1.0,   -0.4,   -0.4,   -0.8,   -0.7,   -1.1,   -2.3,   -1.8,   -2.4,   -3.1,   -2.5,   -2.5,   -2.5,   -2.5,   -2.4,   -2.3,   -2.1,   -2.0,   -1.9,   -1.8,   -1.6,   -1.7,   -1.6,   -1.6,   -1.5,   -1.4,   -1.2,   -1.1,   -1.1,   -1.3,   -1.2,   -1.1,   -1.2,   -0.9,   -0.7,   -0.5,   -0.4,    0.1,   -0.0,   -0.1,    0.0,  999.0,  999.0,  999.0,  999.0
2011/07/28 16:40,   -5.3,   -6.3,   -6.6,   -6.1,   -6.5,   -6.7,   -6.7,   -6.8,   -6.3,   -7.2,   -7.4,   -7.0,   -6.8,   -7.1,   -5.0,   -4.9,   -4.9,   -7.0,   -7.0,   -7.0,   -7.6,   -7.1,   -7.0,   -6.8,   -5.7,   -5.4,   -7.2,   -7.0,   -6.8,   -7.0,   -6.9,   -6.6,   -6.5,   -7.0,   -7.5,   -6.8,   -7.2,   -6.0,   -5.8,   -6.0,   -5.4,  999.0,   -5.4,   -6.1,   -5.8,   -5.9,   -5.0,   -5.2,   -5.2,   -4.9,   -4.8,   -4.7,   -4.5,   -4.4,   -4.2,   -4.2,   -3.9,   -3.9,   -3.8,   -3.8,   -3.7,   -3.0,   -3.0,   -3.1,   -3.0,   -2.7,   -2.6,   -2.2,   -1.9,   -1.5,   -1.1,   -1.1,   -0.9,   -0.5,   -0.6,   -0.6,   -0.6,   -0.5,   -0.3,   -0.1
2011/07/28 16:50,  999.0,  999.0,  999.0,   -7.4,  999.0,  999.0,  999.0,   -7.2,   -7.9,   -7.8,   -7.4,   -7.5,   -7.3,   -7.8,   -7.9,   -8.3,   -8.3,   -8.6,   -8.6,   -8.5,   -8.2,   -8.0,   -8.0,   -7.9,   -7.8,   -7.5,   -7.6,   -7.7,   -7.6,   -7.8,   -8.0,   -7.9,   -7.7,   -7.5,   -7.5,  999.0,  999.0,   -6.5,   -7.0,   -5.2,   -5.5,   -5.2,   -3.0,   -2.6,   -2.3,   -2.1,   -2.0,   -2.0,   -1.8,   -1.5,  999.0,   -1.1,   -1.8,   -1.6,   -3.3,  999.0,  999.0,  999.0,  999.0,   -3.5,   -2.9,   -3.2,   -3.0,   -2.6,   -2.4,   -1.9,   -2.0,   -1.9,   -1.8,   -1.9,   -1.6,   -1.2,   -1.0,   -0.8,   -0.6,   -0.4,   -0.2,    0.2,    0.6,    0.6
2011/07/28 17:00,   -5.9,   -5.8,   -5.8,   -6.0,   -5.7,   -6.1,   -6.4,   -6.7,   -6.7,   -6.8,   -6.5,   -6.1,   -6.0,   -6.1,   -6.1,   -6.2,   -6.3,   -6.4,   -6.4,   -6.5,   -6.5,   -6.6,   -6.6,   -6.7,   -6.7,   -6.8,   -6.8,   -6.8,   -6.6,   -7.0,   -7.1,   -7.1,   -7.1,   -6.9,   -7.0,   -6.9,   -6.4,   -6.7,   -5.4,  999.0,  999.0,   -2.3,   -2.0,   -2.2,   -2.3,   -2.3,   -2.2,   -2.1,   -1.9,   -1.7,   -1.6,   -1.5,   -1.4,   -1.3,   -1.2,   -1.1,   -1.1,   -1.1,   -1.1,   -1.0,   -0.9,   -0.9,   -0.8,   -0.6,   -0.5,   -0.5,   -0.4,   -0.4,   -0.3,   -0.5,   -0.4,   -0.3,   -0.3,   -0.3,   -0.2,   -0.3,   -0.3,   -0.3,   -0.1,   -0.3
2011/07/28 17:10,   -1.7,   -1.6,   -1.3,   -1.6,   -1.5,   -0.1,    0.1,    0.0,   -0.0,   -0.1,    0.2,    0.2,    0.1,    0.0,   -1.1,   -0.5,   -0.6,   -0.5,   -1.2,   -0.0,   -0.1,   -0.0,   -0.0,   -0.0,   -1.0,   -1.0,   -1.0,   -1.0,   -1.1,    0.1,   -0.9,    0.0,   -0.0,    0.0,    0.2,    0.1,    0.1,   -0.0,   -0.0,   -0.1,   -0.5,   -0.5,   -0.6,   -0.7,   -0.9,   -0.9,   -0.9,   -1.0,   -1.7,   -2.3,   -2.2,   -2.0,   -1.8,   -1.7,   -1.7,   -1.6,   -1.4,   -1.3,   -1.3,   -1.3,   -1.2,   -1.3,   -1.3,   -1.2,   -1.2,   -1.2,   -1.3,   -1.0,   -1.2,   -1.0,   -1.0,   -1.0,   -0.9,   -1.0,   -0.7,   -0.9,   -0.8,   -0.7,   -0.7,   -0.6
2011/07/28 17:20,   -0.0,  999.0,    0.0,   -0.0,    0.0,    0.0,    0.0,    0.0,    0.1,    0.1,    0.0,    0.1,    0.0,    0.0,   -0.1,   -0.0,   -0.0,   -0.1,    0.0,   -0.1,   -0.0,   -0.0,   -0.0,    0.0,    0.0,   -0.1,    0.0,    0.1,    0.1,    0.1,    0.0,    0.1,    0.2,    0.1,    0.1,    0.0,    0.1,    0.1,    0.0,    0.0,    0.0,    0.1,    0.1,    0.1,    0.1,    0.1,    0.0,    0.0,   -0.1,   -0.2,   -0.2,   -0.5,   -0.4,   -0.6,   -1.3,   -0.7,   -0.6,   -0.8,   -0.9,   -0.8,   -0.5,   -0.6,   -0.6,   -0.6,   -0.6,   -0.5,   -0.5,   -0.5,   -0.6,   -0.4,   -0.4,   -0.2,   -0.2,   -0.3,   -0.2,  999.0,  999.0,  999.0,  999.0,  999.0
2011/07/28 17:30,    0.0,    0.0,    0.0,   -0.0,   -0.1,   -0.1,   -0.1,   -0.4,   -0.5,   -0.4,   -0.3,   -0.3,   -0.2,   -0.2,   -0.2,   -0.2,   -0.1,   -0.1,   -0.1,   -0.1,   -0.1,   -0.1,   -0.2,   -0.1,   -0.1,   -0.0,   -0.1,   -0.1,   -0.0,   -0.1,   -0.2,    0.1,    0.0,  999.0,    0.1,    0.1,    0.1,    0.1,   -0.0,    0.0,    0.0,    0.0,    0.1,    0.0,   -0.1,   -0.2,   -0.4,   -0.5,   -0.5,   -0.9,   -1.1,   -1.1,   -1.1,   -0.9,   -1.0,   -0.9,   -0.9,   -0.9,   -1.1,   -0.6,   -0.7,   -0.7,   -0.5,   -0.4,   -0.5,   -0.4,  999.0,   -0.3,   -0.2,   -0.2,  999.0,   -0.0,   -0.0,    0.0,    0.0,  999.0,  999.0,  999.0,    0.0,  999.0
2011/07/28 17:40,   -5.9,   -6.0,   -6.0,   -6.4,   -6.5,   -6.0,   -6.0,   -6.3,   -6.2,   -6.0,   -6.0,   -5.9,   -5.8,   -5.8,   -5.9,   -6.0,   -6.0,   -6.1,   -6.2,   -6.4,   -6.3,   -6.5,   -6.5,   -6.5,   -6.4,   -6.5,   -6.5,   -6.5,   -6.4,   -6.4,   -6.4,   -6.4,   -6.5,   -6.4,   -6.4,   -5.7,   -4.2,   -3.2,   -2.8,   -2.3,   -2.3,   -2.5,   -2.5,   -2.4,   -2.2,   -2.0,   -1.9,   -1.7,   -1.7,   -1.6,   -1.5,   -1.4,   -1.3,   -1.1,   -1.1,   -1.1,   -1.1,   -1.2,   -1.3,   -1.3,   -1.1,   -1.2,   -1.0,   -0.5,   -0.5,   -0.3,   -0.4,  999.0,  999.0,   -0.2,  999.0,   -0.1,   -0.3,   -0.2,  999.0,  999.0,  999.0,  999.0,  999.0,  999.0
2011/07/28 17:50,   -7.4,   -7.4,   -7.4,   -7.6,   -7.7,   -7.8,   -7.4,   -7.3,   -7.4,   -7.4,   -7.3,   -7.4,   -7.5,   -7.6,   -7.6,   -7.5,   -7.5,   -7.6,   -7.5,   -7.6,   -7.8,   -7.8,   -7.9,   -7.9,   -8.0,   -8.0,   -8.1,   -8.1,   -8.1,   -8.2,   -8.2,   -8.3,   -8.6,   -8.5,   -8.5,   -7.9,   -6.5,   -5.2,   -4.1,   -3.2,   -2.6,   -2.4,   -2.2,   -2.1,   -2.0,   -2.0,   -2.0,   -1.9,   -1.8,   -1.8,   -1.7,   -1.5,   -1.4,   -1.3,   -1.2,   -1.2,   -1.0,   -1.0,   -0.8,   -0.7,   -0.7,   -0.6,   -0.6,   -0.5,   -0.5,   -0.5,   -0.4,   -0.3,   -0.4,   -0.3,   -0.0,    0.1,    0.0,   -0.0,   -0.0,   -0.0,  999.0,  999.0,  999.0,  999.0
2011/07/28 18:00,   -6.3,   -6.2,   -6.2,   -6.4,   -6.3,   -6.3,   -6.3,   -6.0,   -6.1,   -6.2,   -6.2,   -6.2,   -6.2,   -6.2,   -6.1,   -6.1,   -6.2,   -6.5,   -6.3,   -6.7,   -6.6,   -6.6,   -6.6,   -6.5,   -6.5,   -6.6,   -6.5,   -6.5,   -6.5,   -6.5,   -6.6,   -6.6,   -6.5,   -6.6,   -6.5,   -6.2,   -5.2,   -4.0,   -3.3,   -2.6,   -2.3,   -2.0,   -1.9,   -1.7,   -1.6,   -1.5,   -1.5,   -1.4,   -1.4,   -1.4,   -1.4,   -1.4,   -1.4,   -1.3,   -1.3,   -1.2,   -1.4,   -1.3,   -1.3,   -1.3,   -1.2,   -1.2,   -1.4,   -1.2,   -0.8,   -1.2,   -1.0,   -0.9,   -0.8,   -0.6,   -0.4,   -0.3,   -0.2,   -0.0,   -0.3,   -0.0,  999.0,  999.0,  999.0,  999.0
2011/07/28 18:10,   -7.0,   -7.0,   -6.8,   -7.2,   -7.2,   -7.3,   -7.1,   -7.1,   -7.2,   -7.3,   -7.2,   -6.9,   -6.9,   -6.9,   -7.1,   -7.2,   -7.2,   -7.3,   -7.4,   -7.3,   -7.2,   -7.2,   -7.3,   -7.3,   -7.3,   -7.4,   -7.5,   -7.4,   -7.4,   -7.4,   -7.6,   -7.6,   -7.6,   -7.7,   -7.1,   -6.4,   -5.2,   -3.9,   -2.7,   -2.4,   -2.2,   -1.9,   -1.7,   -1.6,   -1.5,   -1.4,   -1.3,   -1.3,   -1.2,   -1.1,   -1.0,   -0.9,   -0.8,   -0.7,   -0.7,   -0.5,   -0.3,  999.0,   -0.4,   -0.6,   -0.5,   -0.3,   -0.2,   -0.2,   -0.0,    0.2,  999.0,  999.0,  999.0,  999.0,    0.1,    0.0,    0.0,   -0.1,   -0.1,  999.0,  999.0,   -0.2,   -0.3,  999.0
2011/07/28 18:20,   -7.5,   -7.5,   -7.6,   -7.6,   -7.8,   -7.6,   -7.6,   -7.6,   -7.5,   -7.4,   -7.4,   -7.3,   -7.7,   -7.5,   -7.5,   -7.6,   -7.6,   -7.7,   -7.8,   -7.9,   -7.9,   -8.0,   -7.9,   -8.0,   -8.0,   -8.1,   -8.2,   -8.3,   -8.4,   -8.4,   -8.4,   -8.8,   -8.8,   -8.6,   -8.0,   -6.9,   -5.8,   -4.7,   -4.2,   -3.4,   -3.0,   -2.8,   -2.5,   -2.3,   -2.3,   -2.1,   -2.1,   -2.0,   -1.9,   -1.8,   -1.7,   -1.6,   -1.5,   -1.5,   -1.4,   -1.4,   -1.4,   -1.3,   -1.3,   -1.2,   -1.0,   -1.2,   -0.9,   -1.0,   -0.9,   -1.3,   -1.6,   -1.2,   -1.2,   -1.4,   -0.9,   -0.8,   -0.5,   -1.0,   -0.8,   -0.6,   -0.6,   -0.3,   -0.4,   -0.3
2011/07/28 18:30,   -6.7,   -6.6,   -6.6,   -6.5,   -6.4,   -7.0,   -7.2,   -7.3,   -7.3,   -7.0,   -6.7,   -6.9,   -6.8,   -6.7,   -6.7,   -6.8,   -7.0,   -7.2,   -7.0,   -6.9,   -7.0,   -6.6,   -6.5,   -6.7,   -6.9,   -7.0,   -6.8,   -6.8,   -6.9,   -6.9,   -6.9,   -7.0,   -7.2,   -7.4,   -7.1,   -6.4,   -5.4,   -4.4,   -3.6,   -3.3,   -3.0,   -2.7,   -2.5,   -2.4,   -2.2,   -2.1,   -2.0,   -1.8,   -1.8,   -1.8,   -1.7,   -1.5,   -1.4,   -1.4,   -1.3,   -1.2,   -1.1,   -1.1,   -1.0,   -0.9,   -0.9,   -0.8,   -0.8,   -0.6,   -0.4,   -0.4,   -0.3,   -0.2,   -0.3,   -0.3,   -0.3,   -0.2,    0.0,   -0.2,   -0.2,   -0.2,  999.0,  999.0,  999.0,  999.0
2011/07/28 18:40,   -6.2,   -6.3,   -6.5,   -6.3,   -6.4,   -6.3,   -6.2,   -6.0,   -6.1,   -6.0,   -6.1,   -5.9,   -6.0,   -5.9,   -6.0,   -6.0,   -6.3,   -6.3,   -6.3,   -6.2,   -6.3,   -6.3,   -6.3,   -6.4,   -6.3,   -6.2,   -6.0,   -6.1,   -6.0,   -6.2,   -6.2,   -6.3,   -6.7,   -6.8,   -6.8,   -6.6,   -6.3,   -5.8,   -5.4,   -4.3,   -3.9,   -3.6,   -2.8,   -3.1,   -3.0,   -2.6,   -2.4,   -2.7,   -2.6,   -2.8,   -3.0,   -2.2,   -1.9,   -1.9,   -1.5,   -1.2,   -0.9,   -0.8,   -0.6,   -0.6,   -0.6,   -0.4,   -0.7,   -1.0,   -0.8,   -0.7,   -0.6,   -0.3,   -0.2,   -0.4,   -0.4,    0.2,  999.0,    0.1,    0.0,  999.0,  999.0,  999.0,   -0.1,  999.0
2011/07/28 18:50,   -6.6,   -6.3,   -6.4,   -6.4,   -6.3,   -6.3,   -6.4,   -6.5,   -6.2,   -5.9,   -5.7,   -5.3,   -5.5,   -5.5,   -5.2,   -5.5,   -5.2,   -6.0,   -5.8,   -5.6,   -5.4,   -5.4,   -5.4,   -4.6,   -4.6,   -4.7,   -4.9,   -4.8,   -4.9,   -5.2,   -5.2,   -5.2,   -5.3,   -5.4,   -5.4,   -5.5,   -5.3,   -5.2,   -4.5,   -2.5,   -1.9,   -1.8,   -1.6,   -1.7,   -1.7,   -1.6,   -1.9,   -2.0,   -1.2,   -1.3,   -2.0,   -1.8,   -0.9,   -1.7,   -1.8,   -1.6,   -1.3,   -1.2,   -1.0,   -1.1,   -1.1,   -1.0,   -0.9,   -0.9,   -0.9,   -0.8,   -0.8,   -0.6,   -0.5,   -0.5,   -0.5,   -0.5,   -0.6,   -0.4,   -0.3,   -0.5,   -0.5,   -0.4,  999.0,  999.0
2011/07/28 19:00,   -7.4,   -7.3,   -7.3,   -7.4,   -7.3,   -7.3,   -7.6,   -7.1,   -7.1,   -6.7,   -6.8,   -6.9,   -6.9,   -7.2,   -7.2,   -7.1,   -6.9,   -7.0,   -6.9,   -6.9,   -6.9,   -6.9,   -7.0,   -7.0,   -7.0,   -7.0,   -7.0,   -7.0,   -7.1,   -7.1,   -7.1,   -7.2,   -7.3,   -7.3,   -7.0,   -6.5,   -5.4,   -4.4,   -3.0,   -2.2,   -1.9,   -1.8,   -1.6,   -1.7,   -1.7,   -1.7,   -1.7,   -1.7,   -1.7,   -1.7,   -1.7,   -1.7,   -1.4,   -1.3,   -1.2,   -1.1,   -0.9,   -1.0,   -0.8,   -0.6,   -0.6,   -0.4,   -0.5,   -0.4,   -0.4,   -0.7,   -0.4,   -0.5,   -0.4,  999.0,    0.0,   -0.0,   -0.0,   -0.0,    0.0,    0.0,  999.0,  999.0,  999.0,  999.0
2011/07/28 19:10,   -4.5,   -4.4,   -4.4,   -5.6,   -3.8,   -3.5,   -4.1,   -3.9,   -3.8,   -4.0,   -4.0,   -6.0,   -4.8,   -4.7,   -4.7,   -5.0,   -4.5,   -5.0,   -4.9,   -4.5,   -4.5,   -4.5,   -4.5,   -4.6,   -4.7,   -4.8,   -4.8,   -7.2,   -4.7,   -7.1,   -7.1,   -4.7,   -6.5,   -3.8,   -5.9,   -5.8,  999.0,   -4.7,   -1.8,   -2.0,   -1.8,   -2.3,   -1.4,   -1.3,   -1.4,   -1.3,   -1.7,   -1.5,   -1.6,   -1.5,   -1.6,   -1.4,   -1.5,   -1.7,   -1.7,   -1.7,   -1.6,   -1.4,   -1.3,   -1.3,   -1.3,   -1.2,   -1.2,   -1.1,   -0.9,   -0.8,   -0.8,   -0.7,   -0.5,   -0.7,   -0.5,   -0.2,   -0.1,    0.1,    0.0,  999.0,  999.0,  999.0,  999.0,  999.0
2011/07/28 19:20,    0.0,   -0.0,   -0.0,    0.0,    0.0,    0.0,   -0.0,    0.0,   -0.0,   -0.0,    0.0,    0.0,    0.1,    0.1,    0.1,    0.1,    0.1,    0.1,    0.0,    0.0,    0.1,    0.1,    0.2,    0.2,    0.1,    0.2,    0.0,    0.0,    0.1,    0.1,    0.0,    0.2,    0.1,    0.0,    0.0,    0.1,    0.2,    0.2,    0.2,   -0.1,    0.0,   -0.0,   -0.0,   -0.1,   -0.2,   -0.1,   -0.1,   -0.2,   -0.2,   -0.2,   -0.4,   -0.5,   -0.2,  999.0,   -0.5,   -0.4,   -0.8,  999.0,  999.0,  999.0,   -1.2,   -1.2,   -1.0,   -0.8,   -0.7,   -0.6,   -0.4,   -0.3,   -0.4,   -0.1,   -0.0,    0.1,    0.2,    0.0,  999.0,  999.0,  999.0,  999.0,  999.0,  999.0
2011/07/28 19:30,    0.0,   -0.0,   -0.0,    0.1,    0.0,    0.1,    0.1,    0.0,    0.0,    0.1,    0.1,    0.1,    0.1,    0.0,    0.1,    0.0,    0.1,    0.0,    0.0,    0.0,    0.2,    0.1,    0.2,    0.2,    0.1,    0.2,    0.3,    0.2,    0.2,    0.1,    0.1,    0.1,    0.1,    0.0,    0.1,    0.1,   -0.1,   -0.0,   -0.0,   -0.0,    0.1,    0.1,   -0.0,   -0.0,   -0.0,   -0.1,   -0.3,   -0.3,   -0.3,   -0.3,   -0.5,  999.0,  999.0,  999.0,  999.0,  999.0,  999.0,  999.0,  999.0,  999.0,  999.0,  999.0,  999.0,  999.0,  999.0,   -0.3,   -0.3,   -0.4,   -0.5,   -0.3,  999.0,  999.0,  999.0,  999.0,  999.0,  999.0,  999.0,  999.0,  999.0,  999.0
2011/07/28 19:40,    0.0,   -0.0,   -0.1,   -0.1,   -0.0,   -0.0,    0.0,    0.1,    0.1,    0.2,    0.2,    0.2,    0.2,    0.2,    0.3,    0.3,    0.2,    0.1,    0.1,    0.1,    0.1,    0.1,    0.2,    0.3,   -0.1,    0.0,    0.2,    0.1,    0.2,    0.1,    0.0,    0.2,    0.2,    0.3,    0.0,    0.2,  999.0,   -0.0,    0.0,   -0.1,    0.0,   -0.2,   -0.3,   -0.5,   -0.7,   -0.7,   -0.7,   -0.5,   -0.9,   -1.0,   -0.8,   -0.8,   -0.8,  999.0,   -0.6,   -0.5,  999.0,   -0.5,  999.0,  999.0,  999.0,   -0.3,   -0.6,  999.0,  999.0,  999.0,  999.0,  999.0,  999.0,  999.0,  999.0,  999.0,  999.0,   -0.1,  999.0,  999.0,  999.0,  999.0,  999.0,  999.0
2011/07/28 19:50,   -0.0,   -0.0,   -0.0,   -0.0,   -0.0,   -0.1,   -0.1,   -0.1,    0.0,    0.1,    0.1,    0.1,    0.0,    0.1,    0.1,    0.1,    0.1,    0.1,    0.1,   -0.0,   -0.1,   -0.1,    0.0,    0.0,   -0.2,   -0.2,    0.0,   -0.0,   -0.0,   -0.0,    0.0,   -0.1,    0.0,    0.1,   -0.0,   -0.0,   -0.0,   -0.0,   -0.1,   -0.1,   -0.1,   -0.3,   -0.3,   -0.4,   -0.5,   -0.5,   -0.4,   -0.3,   -0.4,    0.2,   -0.7,   -0.3,   -0.4,   -0.6,   -0.3,   -0.4,   -0.3,   -0.2,   -0.0,   -0.0,    0.1,  999.0,  999.0,  999.0,  999.0,  999.0,  999.0,  999.0,  999.0,  999.0,  999.0,  999.0,  999.0,  999.0,  999.0,  999.0,  999.0,  999.0,  999.0,  999.0
2011/07/28 20:00,    0.0,    0.0,   -0.1,   -0.0,   -0.0,   -0.0,    0.0,    0.1,    0.0,    0.1,    0.1,    0.0,    0.1,    0.1,    0.1,    0.1,    0.1,    0.1,    0.0,    0.0,    0.1,    0.2,    0.0,   -0.0,   -0.1,   -0.0,   -0.0,    0.0,    0.0,   -0.0,   -0.0,   -0.2,   -0.1,   -0.0,   -0.2,   -0.3,   -0.2,   -0.1,   -0.1,   -0.2,   -0.1,   -0.2,   -0.1,   -0.0,   -0.1,   -0.0,    0.1,    0.1,   -0.0,   -0.1,  999.0,   -0.3,   -0.1,  999.0,  999.0,  999.0,  999.0,  999.0,  999.0,  999.0,  999.0,  999.0,  999.0,  999.0,  999.0,  999.0,  999.0,  999.0,  999.0,  999.0,  999.0,  999.0,  999.0,  999.0,  999.0,  999.0,  999.0,  999.0,  999.0,  999.0
2011/07/28 20:10,   -0.0,    0.0,    0.0,   -0.2,   -0.1,    0.0,    0.0,   -0.0,    0.0,    0.0,    0.1,   -0.0,    0.1,    0.1,    0.2,    0.2,    0.1,    0.1,    0.0,    0.0,    0.1,    0.0,    0.0,    0.0,   -0.1,   -0.0,   -0.0,   -0.1,   -0.1,   -0.1,   -0.0,   -0.2,   -0.2,   -0.2,   -0.2,   -0.4,   -0.0,   -0.1,   -0.2,   -0.2,   -0.1,   -0.1,   -0.1,   -0.0,   -0.3,   -0.3,   -0.3,   -0.2,   -0.1,   -0.2,    0.0,  999.0,  999.0,  999.0,  999.0,  999.0,  999.0,   -0.4,  999.0,  999.0,  999.0,  999.0,  999.0,  999.0,  999.0,  999.0,  999.0,  999.0,  999.0,  999.0,  999.0,  999.0,  999.0,  999.0,  999.0,  999.0,  999.0,  999.0,  999.0,  999.0
2011/07/28 20:20,    0.1,    0.1,   -0.1,   -0.1,   -0.3,   -0.2,   -0.2,   -0.2,   -0.1,   -0.0,   -0.1,   -0.1,   -0.0,   -0.0,    0.0,    0.0,   -0.0,    0.0,    0.0,    0.0,    0.0,   -0.0,   -0.0,   -0.0,   -0.1,   -0.2,   -0.1,   -0.0,   -0.1,   -0.0,   -0.0,   -0.1,   -0.1,   -0.1,   -0.2,   -0.2,   -0.0,    0.0,   -0.1,    0.1,    0.1,    0.2,    0.2,    0.0,    0.0,    0.1,    0.1,    0.2,    0.0,  999.0,  999.0,  999.0,  999.0,  999.0,  999.0,  999.0,  999.0,  999.0,  999.0,  999.0,  999.0,  999.0,  999.0,  999.0,  999.0,  999.0,  999.0,  999.0,  999.0,  999.0,  999.0,  999.0,  999.0,  999.0,  999.0,  999.0,  999.0,  999.0,  999.0,  999.0
2011/07/28 20:30,    0.1,    0.1,    0.3,    0.3,    0.1,   -0.1,   -0.1,   -0.1,   -0.1,   -0.0,   -0.2,   -0.2,   -0.1,   -0.1,   -0.0,    0.0,    0.1,   -0.1,    0.0,    0.0,   -0.0,   -0.0,   -0.2,   -0.1,   -0.0,    0.0,    0.0,   -0.0,    0.0,    0.1,   -0.0,    0.0,    0.0,   -0.1,   -0.0,    0.0,  999.0,    0.0,    0.1,    0.1,    0.3,    0.3,    0.4,    0.2,    0.1,    0.0,   -0.0,   -0.0,   -0.0,  999.0,  999.0,  999.0,  999.0,  999.0,  999.0,  999.0,  999.0,  999.0,  999.0,  999.0,  999.0,  999.0,  999.0,  999.0,  999.0,  999.0,  999.0,  999.0,  999.0,  999.0,  999.0,  999.0,  999.0,  999.0,  999.0,  999.0,  999.0,  999.0,  999.0,   -0.1
2011/07/28 20:40,   -0.0,   -0.0,   -0.1,   -0.1,   -0.2,   -0.3,   -0.2,   -0.2,   -0.1,   -0.2,   -0.2,   -0.2,   -0.2,   -0.2,   -0.1,   -0.1,   -0.1,   -0.1,   -0.0,   -0.1,   -0.1,   -0.1,   -0.0,    0.1,    0.1,    0.1,    0.2,    0.1,    0.0,   -0.0,   -0.0,    0.0,    0.0,    0.1,    0.1,    0.2,    0.1,    0.1,    0.1,    0.3,    0.5,    0.3,    0.5,    0.4,    0.3,   -0.0,   -0.0,    0.0,   -0.0,   -0.1,    0.0,   -0.1,  999.0,  999.0,  999.0,  999.0,    0.0,  999.0,  999.0,  999.0,  999.0,  999.0,  999.0,  999.0,  999.0,  999.0,  999.0,  999.0,  999.0,  999.0,  999.0,  999.0,   -0.1,   -0.1,   -0.1,  999.0,  999.0,  999.0,  999.0,  999.0
2011/07/28 20:50,   -0.0,    0.1,    0.1,   -0.0,   -0.2,   -0.3,   -0.0,   -0.1,   -0.1,   -0.2,   -0.6,   -0.6,   -0.6,   -0.5,   -0.4,   -0.4,   -0.3,   -0.4,   -0.3,   -0.2,   -0.2,   -0.2,   -0.1,   -0.1,    0.0,   -0.1,   -0.0,   -0.0,    0.0,   -0.0,    0.0,    0.1,    0.1,    0.2,    0.1,    0.3,  999.0,    0.3,    0.4,    0.4,    0.4,    0.5,    0.5,    0.4,    0.4,    0.3,    0.3,  999.0,    0.1,    0.2,    0.2,   -0.0,  999.0,  999.0,  999.0,   -0.0,  999.0,  999.0,  999.0,  999.0,  999.0,  999.0,  999.0,  999.0,  999.0,  999.0,  999.0,  999.0,  999.0,  999.0,  999.0,  999.0,  999.0,  999.0,  999.0,  999.0,  999.0,  999.0,   -0.1,  999.0
2011/07/28 21:00,    0.1,    0.0,   -0.1,   -0.1,   -0.1,   -0.2,   -0.2,   -0.2,   -0.2,   -0.3,   -0.5,   -0.4,   -0.2,   -0.2,   -0.2,   -0.1,   -0.1,   -0.1,   -0.1,   -0.1,    0.0,    0.0,   -0.0,    0.0,   -0.0,   -0.1,    0.0,    0.1,    0.1,   -0.0,    0.1,    0.1,    0.1,   -0.0,  999.0,  999.0,    0.1,    0.1,    0.1,    0.1,    0.1,   -0.1,    0.0,    0.1,    0.1,    0.2,    0.0,    0.2,    0.1,   -0.0,  999.0,    0.0,    0.0,    0.0,  999.0,    0.0,    0.1,  999.0,  999.0,  999.0,  999.0,  999.0,  999.0,  999.0,  999.0,  999.0,  999.0,  999.0,  999.0,  999.0,  999.0,  999.0,  999.0,  999.0,  999.0,  999.0,  999.0,  999.0,  999.0,  999.0
2011/07/28 21:10,    0.0,    0.0,    0.1,    0.1,    0.0,    0.0,    0.0,   -0.0,   -0.0,   -0.0,   -0.3,   -0.1,   -0.1,   -0.0,   -0.1,   -0.0,   -0.1,   -0.1,    0.0,   -0.0,    0.0,    0.0,   -0.1,   -0.0,   -0.0,    0.0,    0.0,    0.1,    0.2,    0.1,    0.1,    0.1,    0.2,  999.0,   -0.1,  999.0,  999.0,  999.0,    0.0,    0.1,    0.1,    0.2,    0.3,    0.2,    0.2,    0.0,    0.0,    0.2,  999.0,  999.0,  999.0,  999.0,    0.1,  999.0,   -0.0,  999.0,    0.0,  999.0,  999.0,  999.0,  999.0,  999.0,  999.0,  999.0,  999.0,  999.0,   -0.0,  999.0,  999.0,  999.0,  999.0,  999.0,  999.0,  999.0,  999.0,  999.0,  999.0,  999.0,  999.0,  999.0
2011/07/28 21:20,   -0.0,    0.1,    0.1,   -0.0,   -0.1,   -0.2,   -0.1,   -0.3,   -0.2,   -0.6,   -0.7,   -0.6,   -0.4,   -0.4,   -0.3,   -0.3,   -0.2,   -0.2,   -0.1,   -0.1,    0.0,   -0.1,   -0.0,    0.2,   -0.0,    0.1,    0.2,    0.2,    0.2,    0.2,    0.1,    0.1,    0.1,  999.0,  999.0,  999.0,    0.1,  999.0,    0.2,  999.0,    0.2,    0.3,  999.0,   -0.1,   -0.0,    0.0,   -0.0,  999.0,    0.2,  999.0,  999.0,    0.0,    0.0,  999.0,  999.0,  999.0,  999.0,  999.0,  999.0,  999.0,  999.0,  999.0,  999.0,    0.0,    0.0,  999.0,  999.0,  999.0,  999.0,  999.0,  999.0,  999.0,  999.0,  999.0,  999.0,  999.0,  999.0,  999.0,  999.0,  999.0
2011/07/28 21:30,    0.0,    0.0,   -0.1,   -0.1,   -0.1,   -0.3,   -0.3,   -0.3,   -0.3,   -0.6,   -0.7,   -0.7,   -0.6,   -0.6,   -0.4,   -0.2,   -0.1,   -0.1,   -0.1,   -0.1,   -0.1,   -0.1,   -0.1,   -0.0,    0.1,    0.1,    0.2,    0.4,  999.0,  999.0,  999.0,    0.1,    0.1,    0.2,    0.2,    0.0,  999.0,  999.0,    0.1,    0.0,    0.0,    0.0,    0.0,    0.1,    0.1,    0.1,   -0.1,  999.0,  999.0,  999.0,  999.0,  999.0,  999.0,  999.0,  999.0,  999.0,   -0.0,  999.0,  999.0,  999.0,  999.0,  999.0,  999.0,   -0.0,  999.0,  999.0,  999.0,  999.0,  999.0,  999.0,  999.0,  999.0,  999.0,  999.0,  999.0,  999.0,  999.0,  999.0,   -0.1,  999.0
2011/07/28 21:40,    0.0,    0.1,    0.0,    0.1,   -0.0,   -0.2,   -0.4,   -0.3,   -0.6,   -0.3,   -0.8,   -0.5,   -0.4,   -0.6,   -0.4,   -0.3,   -0.1,   -0.1,   -0.1,   -0.0,   -0.0,   -0.1,   -0.0,    0.0,    0.0,    0.3,    0.2,    0.3,  999.0,    0.2,    0.0,  999.0,  999.0,  999.0,   -0.1,   -0.0,   -0.2,  999.0,  999.0,   -0.0,    0.0,    0.0,    0.1,    0.0,   -0.0,  999.0,  999.0,  999.0,  999.0,  999.0,  999.0,  999.0,  999.0,  999.0,  999.0,  999.0,  999.0,  999.0,  999.0,  999.0,   -0.1,    0.0,  999.0,    0.0,   -0.0,  999.0,  999.0,  999.0,  999.0,  999.0,  999.0,  999.0,  999.0,   -0.1,  999.0,  999.0,   -0.1,   -0.1,  999.0,   -0.1
2011/07/28 21:50,   -0.0,    0.0,   -0.0,   -0.2,   -0.2,   -0.3,   -0.3,   -0.1,   -0.1,   -0.3,   -0.4,   -0.5,   -0.6,   -0.5,   -0.4,   -0.2,   -0.1,   -0.2,   -0.1,   -0.1,   -0.0,   -0.0,   -0.1,   -0.0,   -0.0,    0.1,    0.2,    0.3,    0.1,   -0.2,    0.0,    0.0,  999.0,  999.0,  999.0,  999.0,    0.2,    0.2,  999.0,    0.0,    0.1,    0.1,    0.2,  999.0,  999.0,  999.0,  999.0,  999.0,  999.0,  999.0,  999.0,  999.0,  999.0,  999.0,  999.0,  999.0,   -0.0,  999.0,  999.0,  999.0,  999.0,  999.0,  999.0,    0.0,   -0.0,  999.0,  999.0,  999.0,  999.0,  999.0,  999.0,  999.0,  999.0,  999.0,  999.0,  999.0,  999.0,  999.0,  999.0,  999.0
2011/07/28 22:00,    0.1,    0.0,   -0.0,    0.0,    0.1,   -0.0,   -0.1,   -0.2,   -0.2,   -0.3,   -0.4,   -0.4,   -0.3,   -0.4,   -0.4,   -0.2,   -0.1,   -0.1,   -0.0,   -0.0,   -0.1,   -0.1,   -0.1,   -0.0,   -0.1,   -0.1,   -0.0,    0.0,    0.0,    0.0,    0.0,   -0.0,    0.0,    0.1,  999.0,  999.0,   -0.0,    0.1,    0.1,    0.1,    0.1,    0.1,    0.1,    0.0,   -0.0,   -0.0,    0.0,    0.1,  999.0,  999.0,    0.0,    0.0,    0.0,    0.0,    0.1,   -0.0,    0.0,    0.0,    0.0,  999.0,  999.0,    0.0,  999.0,   -0.0,    0.0,  999.0,  999.0,  999.0,  999.0,  999.0,  999.0,  999.0,  999.0,  999.0,  999.0,  999.0,    0.2,  999.0,  999.0,  999.0
2011/07/28 22:10,   -0.0,    0.0,    0.1,   -0.1,   -0.2,   -0.1,   -0.1,   -0.2,   -0.0,   -0.1,   -0.1,   -0.1,   -0.1,   -0.2,   -0.1,   -0.1,   -0.0,   -0.0,    0.0,    0.0,   -0.0,   -0.0,   -0.1,   -0.2,   -0.3,   -0.3,   -0.2,   -0.2,   -0.0,   -0.0,   -0.0,    0.1,    0.0,   -0.1,    0.2,  999.0,  999.0,    0.0,    0.1,    0.1,    0.1,    0.3,    0.3,    0.4,    0.3,    0.1,    0.0,    0.2,  999.0,  999.0,    0.0,    0.0,   -0.0,   -0.0,    0.0,   -0.0,    0.0,   -0.0,    0.0,    0.0,  999.0,   -0.0,    0.0,   -0.1,   -0.0,   -0.0,  999.0,  999.0,  999.0,  999.0,  999.0,  999.0,  999.0,  999.0,  999.0,  999.0,  999.0,  999.0,    0.3,  999.0
2011/07/28 22:20,   -0.0,    0.2,    0.3,    0.2,   -0.3,   -0.5,   -0.4,   -0.4,   -0.2,   -0.3,   -0.3,   -0.2,   -0.1,   -0.1,   -0.1,   -0.1,   -0.1,   -0.0,    0.0,   -0.0,    0.0,   -0.0,   -0.1,   -0.0,   -0.0,    0.0,    0.0,    0.0,    0.0,    0.0,    0.0,    0.0,    0.0,   -0.0,  999.0,  999.0,  999.0,  999.0,  999.0,    0.0,   -0.1,    0.2,    0.2,    0.3,    0.4,    0.1,    0.1,    0.1,    0.1,  999.0,    0.0,    0.0,    0.0,   -0.0,    0.0,    0.0,    0.0,   -0.0,   -0.0,   -0.0,  999.0,    0.0,   -0.0,    0.0,   -0.0,    0.0,  999.0,  999.0,  999.0,  999.0,   -0.1,    0.0,  999.0,  999.0,  999.0,  999.0,  999.0,  999.0,  999.0,  999.0
2011/07/28 22:30,   -0.0,    0.0,    0.1,    0.1,   -0.0,   -0.1,   -0.2,   -0.1,   -0.0,   -0.1,   -0.1,   -0.1,   -0.1,   -0.1,   -0.1,   -0.1,   -0.0,    0.0,    0.0,   -0.0,   -0.0,    0.0,   -0.1,   -0.1,   -0.1,   -0.1,   -0.2,   -0.2,    0.1,   -0.1,   -0.1,    0.0,   -0.0,  999.0,  999.0,  999.0,  999.0,  999.0,  999.0,    0.1,    0.2,    0.2,    0.2,    0.1,   -0.1,  999.0,    0.0,    0.0,  999.0,    0.1,  999.0,   -0.1,    0.0,    0.0,   -0.0,    0.0,   -0.0,   -0.0,   -0.0,  999.0,  999.0,   -0.0,  999.0,  999.0,   -0.0,  999.0,  999.0,  999.0,  999.0,  999.0,  999.0,  999.0,  999.0,  999.0,  999.0,  999.0,  999.0,  999.0,  999.0,  999.0
2011/07/28 22:40,   -0.1,    0.0,    0.0,   -0.0,   -0.0,    0.0,   -0.3,   -0.3,   -0.2,    0.0,    0.0,    0.0,   -0.0,   -0.0,   -0.1,    0.0,    0.1,    0.1,    0.0,    0.0,   -0.0,   -0.0,   -0.0,    0.0,    0.0,   -0.1,   -0.1,    0.0,   -0.1,   -0.1,    0.1,    0.0,   -0.1,  999.0,  999.0,  999.0,  999.0,  999.0,  999.0,  999.0,    0.3,  999.0,    0.4,    0.6,    0.5,  999.0,  999.0,  999.0,  999.0,  999.0,  999.0,  999.0,    0.1,    0.0,  999.0,  999.0,    0.1,  999.0,  999.0,  999.0,  999.0,  999.0,  999.0,  999.0,    0.0,  999.0,  999.0,  999.0,  999.0,  999.0,  999.0,  999.0,  999.0,  999.0,  999.0,  999.0,  999.0,  999.0,  999.0,  999.0
2011/07/28 22:50,   -0.0,    0.0,    0.1,    0.0,    0.1,    0.0,   -0.0,   -0.1,   -0.1,   -0.1,    0.0,    0.2,    0.0,    0.0,   -0.1,   -0.0,    0.0,   -0.0,   -0.1,    0.0,   -0.0,    0.0,    0.0,    0.0,    0.0,   -0.0,   -0.0,   -0.1,   -0.2,   -0.1,   -0.0,    0.1,    0.0,    0.1,  999.0,    0.0,    0.1,  999.0,  999.0,  999.0,    0.0,    0.3,  999.0,  999.0,  999.0,  999.0,  999.0,  999.0,  999.0,  999.0,  999.0,    0.3,  999.0,  999.0,  999.0,  999.0,  999.0,  999.0,  999.0,  999.0,  999.0,  999.0,  999.0,  999.0,  999.0,  999.0,  999.0,  999.0,  999.0,  999.0,  999.0,  999.0,  999.0,  999.0,  999.0,  999.0,  999.0,  999.0,  999.0,  999.0
2011/07/28 23:00,   -0.0,    0.0,   -0.0,   -0.1,   -0.0,   -0.1,   -0.0,   -0.2,   -0.1,   -0.0,    0.0,    0.1,    0.1,   -0.1,   -0.1,   -0.1,    0.0,   -0.0,   -0.1,   -0.0,    0.0,    0.1,    0.0,    0.0,    0.2,    0.1,    0.1,    0.0,    0.2,    0.1,    0.2,    0.0,    0.1,  999.0,    0.3,    0.5,  999.0,  999.0,  999.0,   -0.0,  999.0,  999.0,    0.6,    0.4,    0.7,  999.0,  999.0,  999.0,  999.0,  999.0,    0.6,    0.4,    0.4,  999.0,  999.0,  999.0,  999.0,  999.0,  999.0,  999.0,  999.0,  999.0,  999.0,  999.0,  999.0,  999.0,  999.0,  999.0,  999.0,  999.0,  999.0,  999.0,  999.0,  999.0,  999.0,  999.0,  999.0,  999.0,  999.0,  999.0
2011/07/28 23:10,   -0.0,   -0.0,    0.0,   -0.0,   -0.0,   -0.0,    0.0,    0.0,    0.1,   -0.0,   -0.0,    0.1,    0.0,   -0.0,   -0.1,   -0.1,   -0.0,   -0.1,   -0.1,   -0.0,    0.0,   -0.0,    0.0,    0.0,    0.0,   -0.0,    0.0,    0.0,    0.1,    0.1,    0.0,    0.0,    0.2,   -0.0,    0.3,    0.4,  999.0,  999.0,  999.0,   -0.0,    0.1,  999.0,  999.0,    0.6,    0.7,  999.0,    0.3,    0.5,  999.0,  999.0,  999.0,    0.4,    0.4,  999.0,  999.0,  999.0,  999.0,  999.0,  999.0,  999.0,  999.0,  999.0,  999.0,  999.0,  999.0,  999.0,  999.0,  999.0,  999.0,  999.0,  999.0,  999.0,  999.0,  999.0,  999.0,  999.0,  999.0,  999.0,  999.0,  999.0
2011/07/28 23:20,   -0.0,   -0.0,   -0.0,    0.0,   -0.1,    0.0,    0.0,    0.0,    0.1,    0.1,   -0.1,   -0.1,   -0.0,   -0.1,   -0.2,   -0.1,   -0.1,   -0.1,    0.0,   -0.0,    0.0,    0.0,    0.1,   -0.0,    0.0,   -0.0,   -0.0,   -0.0,   -0.0,   -0.0,    0.0,    0.1,    0.1,  999.0,    0.5,    0.6,  999.0,    0.0,   -0.1,   -0.0,    0.1,    0.3,    0.2,    0.5,    0.4,    0.2,    0.5,    0.7,  999.0,  999.0,    0.2,    0.3,    0.7,  999.0,  999.0,  999.0,  999.0,  999.0,  999.0,  999.0,  999.0,  999.0,  999.0,  999.0,  999.0,  999.0,  999.0,  999.0,  999.0,  999.0,  999.0,  999.0,  999.0,  999.0,  999.0,  999.0,  999.0,  999.0,  999.0,    0.2
2011/07/28 23:30,    0.0,    0.0,    0.1,    0.1,    0.0,    0.0,    0.1,    0.1,    0.1,    0.1,   -0.1,   -0.2,   -0.1,   -0.2,   -0.2,   -0.2,   -0.2,   -0.1,   -0.0,    0.0,   -0.0,   -0.1,   -0.0,    0.0,    0.0,    0.1,   -0.0,   -0.0,   -0.0,    0.0,    0.0,    0.0,    0.0,   -0.0,  999.0,    0.5,    0.8,    0.6,    0.5,   -0.1,    0.0,    0.0,    0.3,    0.3,    0.1,    0.1,    0.1,  999.0,  999.0,   -0.1,   -0.0,   -0.0,  999.0,  999.0,  999.0,  999.0,  999.0,  999.0,  999.0,  999.0,  999.0,  999.0,  999.0,  999.0,  999.0,  999.0,  999.0,  999.0,  999.0,  999.0,  999.0,  999.0,  999.0,  999.0,  999.0,  999.0,  999.0,  999.0,  999.0,  999.0
2011/07/28 23:40,    0.0,   -0.0,   -0.0,   -0.0,    0.0,    0.0,   -0.0,   -0.0,   -0.0,    0.1,    0.1,    0.0,    0.1,   -0.0,   -0.1,   -0.1,   -0.1,   -0.1,   -0.0,   -0.0,   -0.1,   -0.1,    0.0,    0.0,   -0.0,   -0.0,   -0.0,    0.1,   -0.1,   -0.1,    0.1,   -0.0,  999.0,  999.0,  999.0,  999.0,  999.0,  999.0,    0.1,  999.0,    0.2,    0.1,    0.2,    0.2,    0.2,    0.2,    0.2,    0.2,  999.0,  999.0,   -0.0,    0.2,  999.0,  999.0,  999.0,    0.0,  999.0,  999.0,  999.0,  999.0,  999.0,  999.0,  999.0,  999.0,  999.0,  999.0,  999.0,  999.0,  999.0,  999.0,  999.0,  999.0,  999.0,  999.0,  999.0,  999.0,  999.0,  999.0,  999.0,  999.0
2011/07/28 23:50,   -0.0,    0.0,    0.0,    0.0,    0.0,   -0.0,   -0.0,   -0.0,   -0.1,   -0.0,   -0.0,   -0.2,   -0.3,   -0.3,   -0.2,   -0.2,   -0.2,   -0.2,   -0.1,   -0.0,   -0.1,   -0.0,   -0.1,   -0.1,   -0.0,   -0.0,   -0.1,   -0.0,   -0.0,    0.0,   -0.0,   -0.1,  999.0,   -0.0,  999.0,  999.0,  999.0,    0.1,    0.0,   -0.1,  999.0,   -0.1,   -0.1,   -0.1,   -0.0,    0.1,    0.1,    0.1,    0.2,  999.0,    0.1,    0.2,  999.0,  999.0,  999.0,  999.0,    0.1,  999.0,  999.0,  999.0,  999.0,  999.0,  999.0,    0.0,    0.0,  999.0,  999.0,  999.0,  999.0,  999.0,  999.0,  999.0,  999.0,   -0.2,  999.0,  999.0,  999.0,  999.0,  999.0,  999.0
